Wetterdaten: Mittwoch, 04.01.2023
Datum Zeit Temp. Aussen Temp. o. S. Temp +5cm Feuchte Auss Luftdruck Regen Sonnenschein Regendauer Solar Windben Empfang
04.01.2023 00:00 6,8 C 6,7 C 3,3 C 89 % 1023,6 hPa 0,0 l/m 0 min 0 min 0 W/m 16,1 km/h (3 Bft) 91,49 %
04.01.2023 00:02 6,8 C 6,7 C 3,3 C 89 % 1023,5 hPa 0,0 l/m 0 min 0 min 0 W/m 12,9 km/h (3 Bft) 91,89 %
04.01.2023 00:04 6,8 C 6,7 C 3,3 C 89 % 1023,4 hPa 0,0 l/m 0 min 0 min 0 W/m 12,9 km/h (3 Bft) 93,62 %
04.01.2023 00:07 6,9 C 6,7 C 3,3 C 89 % 1023,3 hPa 0,0 l/m 0 min 0 min 0 W/m 12,9 km/h (3 Bft) 91,46 %
04.01.2023 00:08 6,9 C 6,7 C 3,3 C 89 % 1023,3 hPa 0,0 l/m 0 min 0 min 0 W/m 12,9 km/h (3 Bft) 90,91 %
04.01.2023 00:12 7,0 C 6,7 C 3,3 C 89 % 1023,4 hPa 0,0 l/m 0 min 0 min 0 W/m 12,9 km/h (3 Bft) 100,00 %
04.01.2023 00:14 7,1 C 6,7 C 3,3 C 89 % 1023,3 hPa 0,0 l/m 0 min 0 min 0 W/m 16,1 km/h (3 Bft) 91,49 %
04.01.2023 00:16 7,1 C 6,7 C 3,3 C 88 % 1023,3 hPa 0,0 l/m 0 min 0 min 0 W/m 19,3 km/h (3 Bft) 93,48 %
04.01.2023 00:18 7,1 C 6,7 C 3,3 C 88 % 1023,3 hPa 0,0 l/m 0 min 0 min 0 W/m 19,3 km/h (3 Bft) 95,74 %
04.01.2023 00:20 7,1 C 6,7 C 3,3 C 88 % 1023,2 hPa 0,0 l/m 0 min 0 min 0 W/m 16,1 km/h (3 Bft) 95,74 %
04.01.2023 00:22 7,2 C 6,7 C 3,9 C 88 % 1023,2 hPa 0,0 l/m 0 min 0 min 0 W/m 16,1 km/h (3 Bft) 91,49 %
04.01.2023 00:24 7,2 C 6,7 C 3,9 C 88 % 1023,2 hPa 0,0 l/m 0 min 0 min 0 W/m 12,9 km/h (3 Bft) 93,62 %
04.01.2023 00:26 7,2 C 6,7 C 3,9 C 88 % 1023,1 hPa 0,0 l/m 0 min 0 min 0 W/m 12,9 km/h (3 Bft) 95,74 %
04.01.2023 00:28 7,3 C 6,7 C 3,9 C 88 % 1023,0 hPa 0,0 l/m 0 min 0 min 0 W/m 16,1 km/h (3 Bft) 93,62 %
04.01.2023 00:30 7,3 C 6,7 C 3,9 C 88 % 1022,9 hPa 0,0 l/m 0 min 0 min 0 W/m 19,3 km/h (3 Bft) 100,00 %
04.01.2023 00:32 7,3 C 7,2 C 3,9 C 88 % 1022,9 hPa 0,0 l/m 0 min 0 min 0 W/m 22,5 km/h (4 Bft) 95,74 %
04.01.2023 00:34 7,4 C 7,2 C 3,9 C 88 % 1022,9 hPa 0,0 l/m 0 min 0 min 0 W/m 16,1 km/h (3 Bft) 100,00 %
04.01.2023 00:36 7,4 C 7,2 C 3,9 C 88 % 1022,9 hPa 0,0 l/m 0 min 0 min 0 W/m 16,1 km/h (3 Bft) 100,00 %
04.01.2023 00:38 7,5 C 7,2 C 3,9 C 88 % 1022,8 hPa 0,0 l/m 0 min 0 min 0 W/m 16,1 km/h (3 Bft) 97,87 %
04.01.2023 00:40 7,6 C 7,2 C 3,9 C 88 % 1022,8 hPa 0,0 l/m 0 min 0 min 0 W/m 22,5 km/h (4 Bft) 100,00 %
04.01.2023 00:42 7,6 C 7,2 C 3,9 C 88 % 1022,7 hPa 0,0 l/m 0 min 0 min 0 W/m 16,1 km/h (3 Bft) 100,00 %
04.01.2023 00:44 7,6 C 7,2 C 3,9 C 88 % 1022,7 hPa 0,0 l/m 0 min 0 min 0 W/m 19,3 km/h (3 Bft) 97,87 %
04.01.2023 00:46 7,7 C 7,2 C 3,9 C 87 % 1022,7 hPa 0,0 l/m 0 min 0 min 0 W/m 19,3 km/h (3 Bft) 100,00 %
04.01.2023 00:48 7,7 C 7,2 C 3,9 C 87 % 1022,6 hPa 0,0 l/m 0 min 0 min 0 W/m 16,1 km/h (3 Bft) 100,00 %
04.01.2023 00:50 7,8 C 7,2 C 4,4 C 87 % 1022,6 hPa 0,0 l/m 0 min 0 min 0 W/m 22,5 km/h (4 Bft) 97,87 %
04.01.2023 00:52 7,8 C 7,2 C 4,4 C 87 % 1022,5 hPa 0,0 l/m 0 min 0 min 0 W/m 29,0 km/h (5 Bft) 97,87 %
04.01.2023 00:54 7,9 C 7,8 C 4,4 C 87 % 1022,5 hPa 0,0 l/m 0 min 0 min 0 W/m 29,0 km/h (5 Bft) 100,00 %
04.01.2023 00:56 8,0 C 7,8 C 4,4 C 87 % 1022,5 hPa 0,0 l/m 0 min 0 min 0 W/m 25,7 km/h (4 Bft) 97,83 %
04.01.2023 00:58 8,1 C 7,8 C 4,4 C 87 % 1022,4 hPa 0,0 l/m 0 min 0 min 0 W/m 22,5 km/h (4 Bft) 100,00 %
04.01.2023 01:00 8,1 C 7,8 C 4,4 C 87 % 1022,3 hPa 0,0 l/m 0 min 0 min 0 W/m 16,1 km/h (3 Bft) 100,00 %
04.01.2023 01:02 8,2 C 7,8 C 4,4 C 87 % 1022,3 hPa 0,0 l/m 0 min 0 min 0 W/m 25,7 km/h (4 Bft) 97,87 %
04.01.2023 01:04 8,3 C 7,8 C 4,4 C 86 % 1022,3 hPa 0,0 l/m 0 min 0 min 0 W/m 19,3 km/h (3 Bft) 97,87 %
04.01.2023 01:06 8,3 C 7,8 C 4,4 C 86 % 1022,2 hPa 0,0 l/m 0 min 0 min 0 W/m 22,5 km/h (4 Bft) 100,00 %
04.01.2023 01:08 8,4 C 7,8 C 4,4 C 86 % 1022,3 hPa 0,0 l/m 0 min 0 min 0 W/m 22,5 km/h (4 Bft) 97,14 %
04.01.2023 01:10 8,4 C 8,3 C 5,0 C 86 % 1022,2 hPa 0,0 l/m 0 min 0 min 0 W/m 22,5 km/h (4 Bft) 100,00 %
04.01.2023 01:12 8,6 C 8,3 C 5,0 C 86 % 1022,1 hPa 0,0 l/m 0 min 0 min 0 W/m 19,3 km/h (3 Bft) 100,00 %
04.01.2023 01:14 8,6 C 8,3 C 5,0 C 85 % 1022,1 hPa 0,0 l/m 0 min 0 min 0 W/m 19,3 km/h (3 Bft) 93,62 %
04.01.2023 01:16 8,7 C 8,3 C 5,0 C 85 % 1022,0 hPa 0,0 l/m 0 min 0 min 0 W/m 22,5 km/h (4 Bft) 100,00 %
04.01.2023 01:18 8,7 C 8,3 C 4,4 C 85 % 1022,1 hPa 0,0 l/m 0 min 0 min 0 W/m 25,7 km/h (4 Bft) 100,00 %
04.01.2023 01:20 8,8 C 8,3 C 4,4 C 85 % 1022,1 hPa 0,0 l/m 0 min 2 min 0 W/m 22,5 km/h (4 Bft) 97,87 %
04.01.2023 01:22 8,8 C 8,3 C 4,4 C 85 % 1022,1 hPa 0,0 l/m 0 min 2 min 0 W/m 29,0 km/h (5 Bft) 100,00 %
04.01.2023 01:24 8,9 C 8,3 C 4,4 C 85 % 1022,1 hPa 0,0 l/m 0 min 2 min 0 W/m 22,5 km/h (4 Bft) 97,87 %
04.01.2023 01:26 8,9 C 8,3 C 4,4 C 85 % 1022,0 hPa 0,0 l/m 0 min 0 min 0 W/m 16,1 km/h (3 Bft) 97,87 %
04.01.2023 01:28 8,9 C 8,3 C 4,4 C 85 % 1022,0 hPa 0,0 l/m 0 min 0 min 0 W/m 19,3 km/h (3 Bft) 100,00 %
04.01.2023 01:30 8,9 C 8,3 C 4,4 C 85 % 1022,0 hPa 0,0 l/m 0 min 0 min 0 W/m 29,0 km/h (5 Bft) 100,00 %
04.01.2023 01:32 9,0 C 8,3 C 4,4 C 85 % 1021,9 hPa 0,0 l/m 0 min 0 min 0 W/m 25,7 km/h (4 Bft) 97,87 %
04.01.2023 01:34 9,0 C 8,3 C 4,4 C 85 % 1021,9 hPa 0,0 l/m 0 min 2 min 0 W/m 16,1 km/h (3 Bft) 100,00 %
04.01.2023 01:36 9,0 C 8,3 C 4,4 C 85 % 1021,9 hPa 0,0 l/m 0 min 2 min 0 W/m 19,3 km/h (3 Bft) 100,00 %
04.01.2023 01:38 9,1 C 8,3 C 4,4 C 85 % 1021,9 hPa 0,0 l/m 0 min 0 min 0 W/m 35,4 km/h (5 Bft) 95,74 %
04.01.2023 01:40 9,1 C 8,3 C 4,4 C 85 % 1021,8 hPa 0,0 l/m 0 min 2 min 0 W/m 29,0 km/h (5 Bft) 100,00 %
04.01.2023 01:42 9,1 C 8,3 C 4,4 C 85 % 1021,8 hPa 0,0 l/m 0 min 2 min 0 W/m 22,5 km/h (4 Bft) 97,87 %
04.01.2023 01:44 9,1 C 8,3 C 4,4 C 86 % 1021,7 hPa 0,0 l/m 0 min 2 min 0 W/m 29,0 km/h (5 Bft) 97,87 %
04.01.2023 01:46 9,1 C 8,3 C 3,9 C 86 % 1021,7 hPa 0,0 l/m 0 min 2 min 0 W/m 16,1 km/h (3 Bft) 97,87 %
04.01.2023 01:48 9,1 C 7,8 C 3,9 C 86 % 1021,7 hPa 0,0 l/m 0 min 2 min 0 W/m 19,3 km/h (3 Bft) 97,83 %
04.01.2023 01:50 9,1 C 7,8 C 3,9 C 86 % 1021,6 hPa 0,2 l/m 0 min 2 min 0 W/m 32,2 km/h (5 Bft) 97,87 %
04.01.2023 01:52 9,1 C 7,8 C 3,9 C 87 % 1021,5 hPa 0,0 l/m 0 min 2 min 0 W/m 19,3 km/h (3 Bft) 97,87 %
04.01.2023 01:54 9,1 C 7,8 C 3,9 C 87 % 1021,5 hPa 0,0 l/m 0 min 2 min 0 W/m 19,3 km/h (3 Bft) 97,87 %
04.01.2023 01:56 9,0 C 7,8 C 3,9 C 87 % 1021,5 hPa 0,0 l/m 0 min 2 min 0 W/m 19,3 km/h (3 Bft) 97,87 %
04.01.2023 01:58 9,0 C 7,8 C 3,9 C 87 % 1021,4 hPa 0,0 l/m 0 min 2 min 0 W/m 16,1 km/h (3 Bft) 97,87 %
04.01.2023 02:00 9,0 C 7,8 C 3,9 C 88 % 1021,4 hPa 0,0 l/m 0 min 2 min 0 W/m 38,6 km/h (5 Bft) 97,83 %
04.01.2023 02:02 8,9 C 7,8 C 3,9 C 88 % 1021,4 hPa 0,0 l/m 0 min 2 min 0 W/m 22,5 km/h (4 Bft) 95,74 %
04.01.2023 02:04 8,9 C 7,8 C 3,9 C 88 % 1021,4 hPa 0,0 l/m 0 min 2 min 0 W/m 22,5 km/h (4 Bft) 97,87 %
04.01.2023 02:06 8,9 C 7,8 C 3,9 C 89 % 1021,2 hPa 0,2 l/m 0 min 2 min 0 W/m 22,5 km/h (4 Bft) 96,61 %
04.01.2023 02:08 8,9 C 7,8 C 3,9 C 89 % 1021,3 hPa 0,0 l/m 0 min 2 min 0 W/m 16,1 km/h (3 Bft) 100,00 %
04.01.2023 02:10 8,9 C 7,8 C 3,9 C 89 % 1021,2 hPa 0,0 l/m 0 min 2 min 0 W/m 16,1 km/h (3 Bft) 95,74 %
04.01.2023 02:12 8,8 C 7,8 C 3,9 C 89 % 1021,2 hPa 0,0 l/m 0 min 2 min 0 W/m 22,5 km/h (4 Bft) 95,74 %
04.01.2023 02:14 8,8 C 7,8 C 3,9 C 89 % 1021,2 hPa 0,0 l/m 0 min 2 min 0 W/m 22,5 km/h (4 Bft) 100,00 %
04.01.2023 02:16 8,8 C 7,8 C 3,9 C 90 % 1021,1 hPa 0,0 l/m 0 min 2 min 0 W/m 19,3 km/h (3 Bft) 97,87 %
04.01.2023 02:18 8,8 C 7,8 C 3,9 C 90 % 1021,1 hPa 0,0 l/m 0 min 2 min 0 W/m 22,5 km/h (4 Bft) 100,00 %
04.01.2023 02:20 8,8 C 7,8 C 3,9 C 90 % 1021,1 hPa 0,0 l/m 0 min 2 min 0 W/m 25,7 km/h (4 Bft) 100,00 %
04.01.2023 02:22 8,8 C 7,8 C 3,9 C 90 % 1021,0 hPa 0,0 l/m 0 min 2 min 0 W/m 22,5 km/h (4 Bft) 95,74 %
04.01.2023 02:24 8,8 C 7,8 C 3,9 C 90 % 1021,0 hPa 0,0 l/m 0 min 2 min 0 W/m 29,0 km/h (5 Bft) 95,74 %
04.01.2023 02:26 8,8 C 7,8 C 3,9 C 90 % 1020,9 hPa 0,0 l/m 0 min 2 min 0 W/m 22,5 km/h (4 Bft) 93,48 %
04.01.2023 02:28 8,8 C 7,8 C 3,9 C 90 % 1020,9 hPa 0,0 l/m 0 min 2 min 0 W/m 22,5 km/h (4 Bft) 95,74 %
04.01.2023 02:30 8,8 C 7,8 C 3,9 C 90 % 1020,9 hPa 0,0 l/m 0 min 2 min 0 W/m 19,3 km/h (3 Bft) 95,74 %
04.01.2023 02:32 8,8 C 7,8 C 3,9 C 91 % 1020,9 hPa 0,0 l/m 0 min 2 min 0 W/m 16,1 km/h (3 Bft) 93,62 %
04.01.2023 02:34 8,8 C 7,8 C 3,9 C 91 % 1020,9 hPa 0,0 l/m 0 min 2 min 0 W/m 19,3 km/h (3 Bft) 93,62 %
04.01.2023 02:36 8,7 C 7,8 C 3,9 C 91 % 1020,8 hPa 0,0 l/m 0 min 2 min 0 W/m 16,1 km/h (3 Bft) 93,62 %
04.01.2023 02:38 8,7 C 7,8 C 3,9 C 91 % 1020,8 hPa 0,0 l/m 0 min 2 min 0 W/m 22,5 km/h (4 Bft) 95,74 %
04.01.2023 02:40 8,7 C 7,8 C 3,9 C 91 % 1020,8 hPa 0,2 l/m 0 min 2 min 0 W/m 16,1 km/h (3 Bft) 95,65 %
04.01.2023 02:42 8,7 C 7,8 C 3,9 C 91 % 1020,8 hPa 0,0 l/m 0 min 2 min 0 W/m 22,5 km/h (4 Bft) 95,74 %
04.01.2023 02:44 8,7 C 7,8 C 3,9 C 91 % 1020,9 hPa 0,0 l/m 0 min 2 min 0 W/m 19,3 km/h (3 Bft) 94,00 %
04.01.2023 02:46 8,7 C 7,8 C 3,9 C 91 % 1020,8 hPa 0,0 l/m 0 min 2 min 0 W/m 25,7 km/h (4 Bft) 93,62 %
04.01.2023 02:48 8,7 C 7,8 C 3,9 C 91 % 1020,9 hPa 0,0 l/m 0 min 2 min 0 W/m 19,3 km/h (3 Bft) 93,62 %
04.01.2023 02:50 8,7 C 7,8 C 3,9 C 92 % 1020,8 hPa 0,2 l/m 0 min 2 min 0 W/m 25,7 km/h (4 Bft) 95,74 %
04.01.2023 02:52 8,7 C 7,2 C 3,9 C 92 % 1020,9 hPa 0,0 l/m 0 min 2 min 0 W/m 19,3 km/h (3 Bft) 95,65 %
04.01.2023 02:54 8,7 C 7,2 C 3,9 C 92 % 1020,8 hPa 0,0 l/m 0 min 2 min 0 W/m 29,0 km/h (5 Bft) 95,74 %
04.01.2023 02:56 8,7 C 7,2 C 3,9 C 92 % 1020,7 hPa 0,0 l/m 0 min 0 min 0 W/m 22,5 km/h (4 Bft) 95,74 %
04.01.2023 02:58 8,7 C 7,2 C 3,9 C 92 % 1020,7 hPa 0,0 l/m 0 min 0 min 0 W/m 16,1 km/h (3 Bft) 95,74 %
04.01.2023 03:00 8,7 C 7,2 C 3,9 C 92 % 1020,7 hPa 0,2 l/m 0 min 0 min 0 W/m 22,5 km/h (4 Bft) 95,74 %
04.01.2023 03:02 8,7 C 7,2 C 3,9 C 92 % 1020,7 hPa 0,0 l/m 0 min 0 min 0 W/m 16,1 km/h (3 Bft) 93,62 %
04.01.2023 03:04 8,6 C 7,2 C 3,9 C 93 % 1020,7 hPa 0,0 l/m 0 min 0 min 0 W/m 29,0 km/h (5 Bft) 97,83 %
04.01.2023 03:06 8,6 C 7,2 C 3,9 C 93 % 1020,7 hPa 0,2 l/m 0 min 0 min 0 W/m 25,7 km/h (4 Bft) 93,62 %
04.01.2023 03:08 8,6 C 7,2 C 3,9 C 93 % 1020,7 hPa 0,0 l/m 0 min 2 min 0 W/m 16,1 km/h (3 Bft) 97,87 %
04.01.2023 03:10 8,6 C 7,2 C 3,9 C 93 % 1020,6 hPa 0,0 l/m 0 min 0 min 0 W/m 35,4 km/h (5 Bft) 97,87 %
04.01.2023 03:12 8,6 C 7,2 C 3,9 C 93 % 1020,7 hPa 0,0 l/m 0 min 0 min 0 W/m 19,3 km/h (3 Bft) 95,74 %
04.01.2023 03:14 8,6 C 7,2 C 4,4 C 93 % 1020,6 hPa 0,0 l/m 0 min 2 min 0 W/m 19,3 km/h (3 Bft) 97,87 %
04.01.2023 03:16 8,6 C 7,2 C 4,4 C 93 % 1020,6 hPa 0,0 l/m 0 min 0 min 0 W/m 25,7 km/h (4 Bft) 100,00 %
04.01.2023 03:18 8,6 C 7,2 C 4,4 C 94 % 1020,5 hPa 0,0 l/m 0 min 2 min 0 W/m 29,0 km/h (5 Bft) 100,00 %
04.01.2023 03:20 8,6 C 7,2 C 4,4 C 94 % 1020,6 hPa 0,2 l/m 0 min 2 min 0 W/m 41,8 km/h (6 Bft) 95,74 %
04.01.2023 03:22 8,6 C 7,2 C 4,4 C 94 % 1020,6 hPa 0,0 l/m 0 min 2 min 0 W/m 32,2 km/h (5 Bft) 100,00 %
04.01.2023 03:24 8,6 C 7,2 C 4,4 C 94 % 1020,5 hPa 0,0 l/m 0 min 0 min 0 W/m 16,1 km/h (3 Bft) 97,87 %
04.01.2023 03:26 8,6 C 7,2 C 4,4 C 94 % 1020,6 hPa 0,0 l/m 0 min 0 min 0 W/m 22,5 km/h (4 Bft) 100,00 %
04.01.2023 03:28 8,6 C 7,2 C 4,4 C 94 % 1020,5 hPa 0,0 l/m 0 min 0 min 0 W/m 32,2 km/h (5 Bft) 100,00 %
04.01.2023 03:30 8,6 C 7,2 C 4,4 C 94 % 1020,3 hPa 0,0 l/m 0 min 0 min 0 W/m 29,0 km/h (5 Bft) 100,00 %
04.01.2023 03:32 8,6 C 7,2 C 4,4 C 94 % 1020,3 hPa 0,0 l/m 0 min 2 min 0 W/m 22,5 km/h (4 Bft) 100,00 %
04.01.2023 03:34 8,6 C 7,2 C 4,4 C 94 % 1020,5 hPa 0,0 l/m 0 min 0 min 0 W/m 25,7 km/h (4 Bft) 100,00 %
04.01.2023 03:36 8,6 C 7,2 C 4,4 C 94 % 1020,5 hPa 0,0 l/m 0 min 0 min 0 W/m 19,3 km/h (3 Bft) 97,87 %
04.01.2023 03:38 8,6 C 7,8 C 4,4 C 95 % 1020,3 hPa 0,0 l/m 0 min 0 min 0 W/m 25,7 km/h (4 Bft) 97,87 %
04.01.2023 03:40 8,6 C 7,8 C 4,4 C 95 % 1020,3 hPa 0,0 l/m 0 min 0 min 0 W/m 19,3 km/h (3 Bft) 95,74 %
04.01.2023 03:42 8,6 C 7,8 C 4,4 C 95 % 1020,2 hPa 0,0 l/m 0 min 0 min 0 W/m 32,2 km/h (5 Bft) 97,83 %
04.01.2023 03:44 8,6 C 7,8 C 4,4 C 95 % 1020,2 hPa 0,0 l/m 0 min 0 min 0 W/m 22,5 km/h (4 Bft) 95,74 %
04.01.2023 03:46 8,6 C 7,8 C 4,4 C 95 % 1020,2 hPa 0,0 l/m 0 min 0 min 0 W/m 25,7 km/h (4 Bft) 97,87 %
04.01.2023 03:48 8,7 C 7,8 C 4,4 C 95 % 1020,0 hPa 0,0 l/m 0 min 0 min 0 W/m 19,3 km/h (3 Bft) 97,87 %
04.01.2023 03:50 8,7 C 7,8 C 4,4 C 95 % 1020,0 hPa 0,0 l/m 0 min 0 min 0 W/m 19,3 km/h (3 Bft) 95,74 %
04.01.2023 03:52 8,7 C 7,8 C 4,4 C 95 % 1020,0 hPa 0,0 l/m 0 min 0 min 0 W/m 25,7 km/h (4 Bft) 97,87 %
04.01.2023 03:54 8,7 C 7,8 C 4,4 C 95 % 1020,0 hPa 0,0 l/m 0 min 0 min 0 W/m 19,3 km/h (3 Bft) 97,87 %
04.01.2023 03:56 8,8 C 7,8 C 4,4 C 95 % 1020,0 hPa 0,0 l/m 0 min 2 min 0 W/m 35,4 km/h (5 Bft) 97,83 %
04.01.2023 03:58 8,8 C 7,8 C 4,4 C 95 % 1019,9 hPa 0,0 l/m 0 min 0 min 0 W/m 16,1 km/h (3 Bft) 97,87 %
04.01.2023 04:00 8,8 C 8,3 C 4,4 C 95 % 1019,9 hPa 0,0 l/m 0 min 0 min 0 W/m 22,5 km/h (4 Bft) 97,87 %
04.01.2023 04:02 8,9 C 8,3 C 4,4 C 95 % 1019,9 hPa 0,0 l/m 0 min 0 min 0 W/m 29,0 km/h (5 Bft) 100,00 %
04.01.2023 04:05 8,9 C 8,3 C 4,4 C 94 % 1019,9 hPa 0,0 l/m 0 min 0 min 0 W/m 35,4 km/h (5 Bft) 73,68 %
04.01.2023 04:12 9,1 C 8,3 C 5,0 C 94 % 1019,8 hPa 0,0 l/m 0 min 0 min 0 W/m 29,0 km/h (5 Bft) 100,00 %
04.01.2023 04:14 9,2 C 8,3 C 5,0 C 94 % 1020,0 hPa 0,0 l/m 0 min 0 min 0 W/m 51,5 km/h (7 Bft) 100,00 %
04.01.2023 04:16 9,3 C 8,3 C 5,0 C 94 % 1019,7 hPa 0,2 l/m 0 min 0 min 0 W/m 41,8 km/h (6 Bft) 100,00 %
04.01.2023 04:18 9,3 C 8,3 C 5,0 C 94 % 1019,8 hPa 0,0 l/m 0 min 0 min 0 W/m 32,2 km/h (5 Bft) 100,00 %
04.01.2023 04:20 9,3 C 8,3 C 5,0 C 93 % 1019,8 hPa 0,0 l/m 0 min 0 min 0 W/m 29,0 km/h (5 Bft) 100,00 %
04.01.2023 04:22 9,4 C 8,3 C 5,0 C 93 % 1019,7 hPa 0,0 l/m 0 min 0 min 0 W/m 22,5 km/h (4 Bft) 100,00 %
04.01.2023 04:24 9,4 C 8,9 C 5,0 C 93 % 1019,7 hPa 0,0 l/m 0 min 0 min 0 W/m 41,8 km/h (6 Bft) 100,00 %
04.01.2023 04:26 9,4 C 8,9 C 5,0 C 93 % 1019,7 hPa 0,0 l/m 0 min 0 min 0 W/m 38,6 km/h (5 Bft) 100,00 %
04.01.2023 04:28 9,5 C 8,9 C 5,0 C 93 % 1019,6 hPa 0,0 l/m 0 min 0 min 0 W/m 29,0 km/h (5 Bft) 100,00 %
04.01.2023 04:30 9,6 C 8,9 C 5,0 C 92 % 1019,6 hPa 0,0 l/m 0 min 0 min 0 W/m 32,2 km/h (5 Bft) 98,00 %
04.01.2023 04:32 9,6 C 8,9 C 5,0 C 92 % 1019,5 hPa 0,0 l/m 0 min 0 min 0 W/m 29,0 km/h (5 Bft) 97,22 %
04.01.2023 04:34 9,6 C 8,9 C 5,0 C 92 % 1019,5 hPa 0,0 l/m 0 min 0 min 0 W/m 45,1 km/h (6 Bft) 100,00 %
04.01.2023 04:36 9,6 C 8,9 C 5,0 C 92 % 1019,4 hPa 0,0 l/m 0 min 0 min 0 W/m 29,0 km/h (5 Bft) 100,00 %
04.01.2023 04:38 9,7 C 8,9 C 5,0 C 92 % 1019,5 hPa 0,0 l/m 0 min 2 min 0 W/m 48,3 km/h (6 Bft) 100,00 %
04.01.2023 04:40 9,7 C 8,9 C 5,0 C 92 % 1019,4 hPa 0,0 l/m 0 min 2 min 0 W/m 29,0 km/h (5 Bft) 98,00 %
04.01.2023 04:42 9,7 C 8,9 C 5,0 C 91 % 1019,4 hPa 0,0 l/m 0 min 2 min 0 W/m 35,4 km/h (5 Bft) 100,00 %
04.01.2023 04:44 9,8 C 8,3 C 5,0 C 91 % 1019,4 hPa 0,0 l/m 0 min 2 min 0 W/m 35,4 km/h (5 Bft) 100,00 %
04.01.2023 04:46 9,7 C 8,3 C 5,0 C 91 % 1019,3 hPa 0,0 l/m 0 min 2 min 0 W/m 41,8 km/h (6 Bft) 100,00 %
04.01.2023 04:48 9,7 C 8,3 C 5,0 C 91 % 1019,2 hPa 0,0 l/m 0 min 2 min 0 W/m 29,0 km/h (5 Bft) 97,87 %
04.01.2023 04:50 9,7 C 8,3 C 5,0 C 91 % 1019,3 hPa 0,0 l/m 0 min 2 min 0 W/m 35,4 km/h (5 Bft) 97,87 %
04.01.2023 04:52 9,8 C 8,3 C 5,0 C 91 % 1019,3 hPa 0,0 l/m 0 min 2 min 0 W/m 35,4 km/h (5 Bft) 97,87 %
04.01.2023 04:54 9,7 C 8,3 C 5,0 C 91 % 1019,3 hPa 0,0 l/m 0 min 2 min 0 W/m 32,2 km/h (5 Bft) 95,65 %
04.01.2023 04:56 9,7 C 8,3 C 5,0 C 91 % 1019,1 hPa 0,0 l/m 0 min 2 min 0 W/m 41,8 km/h (6 Bft) 95,74 %
04.01.2023 04:58 9,7 C 8,3 C 5,0 C 92 % 1019,2 hPa 0,0 l/m 0 min 2 min 0 W/m 38,6 km/h (5 Bft) 97,87 %
04.01.2023 05:00 9,7 C 8,3 C 5,0 C 92 % 1019,2 hPa 0,0 l/m 0 min 2 min 0 W/m 32,2 km/h (5 Bft) 97,87 %
04.01.2023 05:02 9,7 C 8,3 C 5,0 C 92 % 1019,3 hPa 0,0 l/m 0 min 2 min 0 W/m 32,2 km/h (5 Bft) 97,87 %
04.01.2023 05:04 9,7 C 8,3 C 5,0 C 92 % 1019,1 hPa 0,0 l/m 0 min 2 min 0 W/m 38,6 km/h (5 Bft) 97,87 %
04.01.2023 05:06 9,7 C 8,3 C 5,0 C 92 % 1019,1 hPa 0,0 l/m 0 min 2 min 0 W/m 32,2 km/h (5 Bft) 97,83 %
04.01.2023 05:08 9,7 C 8,9 C 5,0 C 92 % 1019,0 hPa 0,0 l/m 0 min 2 min 0 W/m 45,1 km/h (6 Bft) 97,87 %
04.01.2023 05:10 9,7 C 8,9 C 5,0 C 92 % 1019,0 hPa 0,0 l/m 0 min 2 min 0 W/m 32,2 km/h (5 Bft) 97,14 %
04.01.2023 05:12 9,7 C 8,9 C 5,0 C 92 % 1019,0 hPa 0,0 l/m 0 min 0 min 0 W/m 29,0 km/h (5 Bft) 95,74 %
04.01.2023 05:14 9,7 C 8,9 C 5,0 C 92 % 1019,1 hPa 0,0 l/m 0 min 0 min 0 W/m 45,1 km/h (6 Bft) 97,87 %
04.01.2023 05:16 9,7 C 8,9 C 5,0 C 92 % 1019,2 hPa 0,0 l/m 0 min 0 min 0 W/m 25,7 km/h (4 Bft) 97,87 %
04.01.2023 05:18 9,8 C 8,9 C 5,0 C 92 % 1019,1 hPa 0,0 l/m 0 min 0 min 0 W/m 22,5 km/h (4 Bft) 97,87 %
04.01.2023 05:20 9,8 C 8,9 C 5,0 C 92 % 1018,9 hPa 0,0 l/m 0 min 0 min 0 W/m 25,7 km/h (4 Bft) 97,87 %
04.01.2023 05:22 9,8 C 8,9 C 5,0 C 92 % 1018,8 hPa 0,0 l/m 0 min 0 min 0 W/m 38,6 km/h (5 Bft) 97,83 %
04.01.2023 05:24 9,8 C 9,4 C 5,0 C 92 % 1018,8 hPa 0,0 l/m 0 min 0 min 0 W/m 51,5 km/h (7 Bft) 97,87 %
04.01.2023 05:26 9,8 C 9,4 C 5,0 C 92 % 1018,9 hPa 0,0 l/m 0 min 0 min 0 W/m 32,2 km/h (5 Bft) 97,87 %
04.01.2023 05:28 9,9 C 9,4 C 5,0 C 92 % 1018,9 hPa 0,0 l/m 0 min 0 min 0 W/m 45,1 km/h (6 Bft) 91,49 %
04.01.2023 05:30 9,9 C 9,4 C 5,0 C 92 % 1018,9 hPa 0,0 l/m 0 min 0 min 0 W/m 32,2 km/h (5 Bft) 95,74 %
04.01.2023 05:32 9,9 C 9,4 C 5,0 C 92 % 1018,9 hPa 0,0 l/m 0 min 0 min 0 W/m 32,2 km/h (5 Bft) 89,36 %
04.01.2023 05:34 9,9 C 9,4 C 5,0 C 92 % 1018,9 hPa 0,0 l/m 0 min 0 min 0 W/m 38,6 km/h (5 Bft) 93,62 %
04.01.2023 05:36 9,9 C 9,4 C 5,0 C 92 % 1018,9 hPa 0,0 l/m 0 min 0 min 0 W/m 35,4 km/h (5 Bft) 93,48 %
04.01.2023 05:38 9,9 C 9,4 C 5,0 C 92 % 1018,8 hPa 0,0 l/m 0 min 0 min 0 W/m 35,4 km/h (5 Bft) 95,74 %
04.01.2023 05:40 9,9 C 9,4 C 5,0 C 92 % 1018,8 hPa 0,0 l/m 0 min 0 min 0 W/m 32,2 km/h (5 Bft) 97,87 %
04.01.2023 05:42 9,9 C 9,4 C 5,0 C 92 % 1018,8 hPa 0,0 l/m 0 min 0 min 0 W/m 48,3 km/h (6 Bft) 95,74 %
04.01.2023 05:44 9,9 C 9,4 C 5,0 C 92 % 1018,8 hPa 0,0 l/m 0 min 0 min 0 W/m 22,5 km/h (4 Bft) 95,74 %
04.01.2023 05:46 9,9 C 9,4 C 5,6 C 92 % 1018,9 hPa 0,0 l/m 0 min 0 min 0 W/m 54,7 km/h (7 Bft) 91,49 %
04.01.2023 05:48 9,9 C 9,4 C 5,6 C 92 % 1018,7 hPa 0,0 l/m 0 min 0 min 0 W/m 22,5 km/h (4 Bft) 93,62 %
04.01.2023 05:50 9,9 C 9,4 C 5,6 C 92 % 1018,7 hPa 0,0 l/m 0 min 0 min 0 W/m 32,2 km/h (5 Bft) 95,65 %
04.01.2023 05:52 9,9 C 9,4 C 5,6 C 92 % 1018,7 hPa 0,0 l/m 0 min 0 min 0 W/m 29,0 km/h (5 Bft) 95,74 %
04.01.2023 05:54 9,9 C 9,4 C 5,6 C 92 % 1018,8 hPa 0,0 l/m 0 min 0 min 0 W/m 29,0 km/h (5 Bft) 95,74 %
04.01.2023 05:56 9,9 C 9,4 C 5,6 C 92 % 1018,7 hPa 0,0 l/m 0 min 0 min 0 W/m 45,1 km/h (6 Bft) 91,49 %
04.01.2023 05:58 10,0 C 9,4 C 5,6 C 92 % 1018,9 hPa 0,0 l/m 0 min 0 min 0 W/m 41,8 km/h (6 Bft) 95,74 %
04.01.2023 06:00 10,0 C 9,4 C 5,6 C 92 % 1018,6 hPa 0,0 l/m 0 min 0 min 0 W/m 32,2 km/h (5 Bft) 97,87 %
04.01.2023 06:02 10,0 C 9,4 C 5,6 C 92 % 1018,7 hPa 0,0 l/m 0 min 0 min 0 W/m 41,8 km/h (6 Bft) 93,62 %
04.01.2023 06:04 10,0 C 9,4 C 5,6 C 92 % 1018,5 hPa 0,0 l/m 0 min 0 min 0 W/m 48,3 km/h (6 Bft) 95,65 %
04.01.2023 06:08 10,1 C 9,4 C 5,6 C 92 % 1018,7 hPa 0,0 l/m 0 min 0 min 0 W/m 54,7 km/h (7 Bft) 96,81 %
04.01.2023 06:10 10,1 C 9,4 C 5,6 C 92 % 1018,5 hPa 0,0 l/m 0 min 0 min 0 W/m 29,0 km/h (5 Bft) 97,87 %
04.01.2023 06:12 10,1 C 9,4 C 5,6 C 91 % 1018,5 hPa 0,0 l/m 0 min 0 min 0 W/m 41,8 km/h (6 Bft) 93,62 %
04.01.2023 06:14 10,1 C 9,4 C 5,6 C 91 % 1018,5 hPa 0,0 l/m 0 min 0 min 0 W/m 35,4 km/h (5 Bft) 97,87 %
04.01.2023 06:16 10,2 C 9,4 C 5,6 C 91 % 1018,5 hPa 0,0 l/m 0 min 0 min 0 W/m 41,8 km/h (6 Bft) 97,87 %
04.01.2023 06:18 10,2 C 9,4 C 5,6 C 91 % 1018,5 hPa 0,0 l/m 0 min 0 min 0 W/m 35,4 km/h (5 Bft) 95,65 %
04.01.2023 06:20 10,2 C 9,4 C 5,6 C 91 % 1018,5 hPa 0,0 l/m 0 min 0 min 0 W/m 35,4 km/h (5 Bft) 97,87 %
04.01.2023 06:22 10,3 C 9,4 C 5,6 C 91 % 1018,6 hPa 0,0 l/m 0 min 0 min 0 W/m 32,2 km/h (5 Bft) 95,74 %
04.01.2023 06:24 10,3 C 9,4 C 5,6 C 91 % 1018,6 hPa 0,0 l/m 0 min 0 min 0 W/m 38,6 km/h (5 Bft) 100,00 %
04.01.2023 06:26 10,3 C 10,0 C 5,6 C 91 % 1018,7 hPa 0,0 l/m 0 min 0 min 0 W/m 41,8 km/h (6 Bft) 97,87 %
04.01.2023 06:28 10,4 C 9,4 C 5,6 C 91 % 1018,6 hPa 0,0 l/m 0 min 0 min 0 W/m 29,0 km/h (5 Bft) 100,00 %
04.01.2023 06:30 10,4 C 9,4 C 5,6 C 91 % 1018,3 hPa 0,0 l/m 0 min 0 min 0 W/m 32,2 km/h (5 Bft) 100,00 %
04.01.2023 06:32 10,4 C 9,4 C 5,6 C 91 % 1018,2 hPa 0,0 l/m 0 min 0 min 0 W/m 25,7 km/h (4 Bft) 97,87 %
04.01.2023 06:34 10,4 C 9,4 C 5,6 C 91 % 1018,4 hPa 0,0 l/m 0 min 0 min 0 W/m 29,0 km/h (5 Bft) 100,00 %
04.01.2023 06:36 10,4 C 9,4 C 5,6 C 91 % 1018,2 hPa 0,0 l/m 0 min 0 min 0 W/m 38,6 km/h (5 Bft) 100,00 %
04.01.2023 06:38 10,4 C 9,4 C 5,6 C 91 % 1018,3 hPa 0,0 l/m 0 min 0 min 0 W/m 41,8 km/h (6 Bft) 100,00 %
04.01.2023 06:40 10,4 C 10,0 C 5,6 C 91 % 1018,3 hPa 0,0 l/m 0 min 0 min 0 W/m 48,3 km/h (6 Bft) 100,00 %
04.01.2023 06:42 10,4 C 10,0 C 5,6 C 91 % 1018,2 hPa 0,0 l/m 0 min 0 min 0 W/m 48,3 km/h (6 Bft) 100,00 %
04.01.2023 06:44 10,4 C 10,0 C 5,6 C 91 % 1018,1 hPa 0,0 l/m 0 min 0 min 0 W/m 41,8 km/h (6 Bft) 100,00 %
04.01.2023 06:46 10,4 C 10,0 C 5,6 C 90 % 1018,0 hPa 0,0 l/m 0 min 0 min 0 W/m 32,2 km/h (5 Bft) 100,00 %
04.01.2023 06:48 10,4 C 9,4 C 6,1 C 91 % 1018,1 hPa 0,0 l/m 0 min 0 min 0 W/m 22,5 km/h (4 Bft) 100,00 %
04.01.2023 06:50 10,4 C 9,4 C 6,1 C 91 % 1018,1 hPa 0,0 l/m 0 min 0 min 0 W/m 19,3 km/h (3 Bft) 100,00 %
04.01.2023 06:52 10,4 C 9,4 C 6,1 C 90 % 1018,2 hPa 0,0 l/m 0 min 0 min 0 W/m 29,0 km/h (5 Bft) 100,00 %
04.01.2023 06:54 10,4 C 10,0 C 6,1 C 91 % 1018,1 hPa 0,0 l/m 0 min 0 min 0 W/m 32,2 km/h (5 Bft) 100,00 %
04.01.2023 06:56 10,4 C 10,0 C 6,1 C 91 % 1018,0 hPa 0,0 l/m 0 min 0 min 0 W/m 25,7 km/h (4 Bft) 100,00 %
04.01.2023 06:58 10,5 C 10,0 C 6,1 C 91 % 1018,0 hPa 0,0 l/m 0 min 0 min 0 W/m 38,6 km/h (5 Bft) 97,87 %
04.01.2023 07:00 10,5 C 10,0 C 6,1 C 91 % 1018,0 hPa 0,0 l/m 0 min 0 min 0 W/m 35,4 km/h (5 Bft) 100,00 %
04.01.2023 07:02 10,5 C 10,0 C 6,7 C 91 % 1017,9 hPa 0,0 l/m 0 min 0 min 0 W/m 32,2 km/h (5 Bft) 100,00 %
04.01.2023 07:04 10,6 C 10,0 C 6,7 C 91 % 1018,0 hPa 0,0 l/m 0 min 0 min 0 W/m 41,8 km/h (6 Bft) 100,00 %
04.01.2023 07:06 10,6 C 10,0 C 6,7 C 91 % 1017,8 hPa 0,0 l/m 0 min 0 min 0 W/m 29,0 km/h (5 Bft) 100,00 %
04.01.2023 07:08 10,6 C 10,0 C 6,7 C 91 % 1017,9 hPa 0,0 l/m 0 min 0 min 0 W/m 32,2 km/h (5 Bft) 97,14 %
04.01.2023 07:10 10,6 C 10,0 C 6,7 C 91 % 1017,9 hPa 0,0 l/m 0 min 0 min 0 W/m 25,7 km/h (4 Bft) 100,00 %
04.01.2023 07:12 10,6 C 10,0 C 6,7 C 91 % 1017,9 hPa 0,0 l/m 0 min 0 min 0 W/m 45,1 km/h (6 Bft) 100,00 %
04.01.2023 07:14 10,6 C 10,0 C 6,7 C 91 % 1017,9 hPa 0,0 l/m 0 min 0 min 0 W/m 38,6 km/h (5 Bft) 97,87 %
04.01.2023 07:16 10,6 C 10,0 C 6,7 C 91 % 1017,7 hPa 0,0 l/m 0 min 2 min 0 W/m 22,5 km/h (4 Bft) 97,87 %
04.01.2023 07:18 10,6 C 10,0 C 6,7 C 91 % 1017,9 hPa 0,0 l/m 0 min 0 min 0 W/m 29,0 km/h (5 Bft) 95,74 %
04.01.2023 07:20 10,6 C 10,0 C 6,7 C 91 % 1017,8 hPa 0,0 l/m 0 min 0 min 0 W/m 48,3 km/h (6 Bft) 97,87 %
04.01.2023 07:22 10,7 C 10,0 C 6,7 C 91 % 1017,7 hPa 0,0 l/m 0 min 0 min 0 W/m 38,6 km/h (5 Bft) 97,87 %
04.01.2023 07:24 10,7 C 10,0 C 6,7 C 90 % 1017,7 hPa 0,0 l/m 0 min 0 min 0 W/m 25,7 km/h (4 Bft) 95,65 %
04.01.2023 07:26 10,7 C 10,0 C 6,7 C 90 % 1017,8 hPa 0,0 l/m 0 min 0 min 0 W/m 51,5 km/h (7 Bft) 93,62 %
04.01.2023 07:28 10,7 C 10,0 C 6,7 C 90 % 1017,7 hPa 0,0 l/m 0 min 0 min 0 W/m 51,5 km/h (7 Bft) 95,74 %
04.01.2023 07:30 10,8 C 10,0 C 6,7 C 90 % 1017,7 hPa 0,0 l/m 0 min 0 min 0 W/m 29,0 km/h (5 Bft) 95,74 %
04.01.2023 07:32 10,8 C 10,0 C 6,7 C 90 % 1017,5 hPa 0,0 l/m 0 min 0 min 0 W/m 29,0 km/h (5 Bft) 93,62 %
04.01.2023 07:34 10,8 C 10,0 C 6,7 C 90 % 1017,5 hPa 0,0 l/m 0 min 0 min 0 W/m 32,2 km/h (5 Bft) 95,74 %
04.01.2023 07:36 10,8 C 10,0 C 6,7 C 90 % 1017,6 hPa 0,0 l/m 0 min 0 min 0 W/m 29,0 km/h (5 Bft) 93,62 %
04.01.2023 07:38 10,8 C 10,0 C 6,7 C 90 % 1017,5 hPa 0,0 l/m 0 min 0 min 0 W/m 22,5 km/h (4 Bft) 95,65 %
04.01.2023 07:40 10,8 C 10,0 C 6,7 C 90 % 1017,5 hPa 0,0 l/m 0 min 0 min 0 W/m 35,4 km/h (5 Bft) 93,62 %
04.01.2023 07:42 10,8 C 10,0 C 6,7 C 90 % 1017,4 hPa 0,0 l/m 0 min 0 min 0 W/m 38,6 km/h (5 Bft) 95,74 %
04.01.2023 07:44 10,8 C 10,0 C 6,7 C 90 % 1017,6 hPa 0,0 l/m 0 min 2 min 0 W/m 41,8 km/h (6 Bft) 95,74 %
04.01.2023 07:46 10,8 C 10,0 C 6,7 C 90 % 1017,6 hPa 0,0 l/m 0 min 2 min 0 W/m 35,4 km/h (5 Bft) 95,74 %
04.01.2023 07:48 10,8 C 10,0 C 6,7 C 90 % 1017,6 hPa 0,0 l/m 0 min 0 min 0 W/m 35,4 km/h (5 Bft) 94,55 %
04.01.2023 07:50 10,8 C 10,0 C 6,7 C 91 % 1017,7 hPa 0,0 l/m 0 min 0 min 0 W/m 32,2 km/h (5 Bft) 94,00 %
04.01.2023 07:52 10,8 C 10,0 C 6,7 C 91 % 1017,9 hPa 0,0 l/m 0 min 0 min 0 W/m 25,7 km/h (4 Bft) 95,74 %
04.01.2023 07:54 10,8 C 10,0 C 6,7 C 91 % 1017,6 hPa 0,0 l/m 0 min 0 min 0 W/m 35,4 km/h (5 Bft) 95,74 %
04.01.2023 07:56 10,8 C 10,0 C 6,7 C 91 % 1017,6 hPa 0,0 l/m 0 min 0 min 0 W/m 61,2 km/h (7 Bft) 93,62 %
04.01.2023 07:58 10,8 C 10,0 C 6,7 C 91 % 1017,6 hPa 0,0 l/m 0 min 0 min 0 W/m 35,4 km/h (5 Bft) 97,87 %
04.01.2023 08:00 10,8 C 10,0 C 6,7 C 91 % 1017,7 hPa 0,0 l/m 0 min 0 min 0 W/m 25,7 km/h (4 Bft) 100,00 %
04.01.2023 08:02 10,8 C 10,0 C 6,7 C 91 % 1017,7 hPa 0,0 l/m 0 min 0 min 0 W/m 38,6 km/h (5 Bft) 100,00 %
04.01.2023 08:04 10,8 C 10,0 C 6,7 C 91 % 1017,7 hPa 0,0 l/m 0 min 0 min 0 W/m 22,5 km/h (4 Bft) 100,00 %
04.01.2023 08:06 10,9 C 10,0 C 6,7 C 91 % 1017,6 hPa 0,0 l/m 0 min 0 min 0 W/m 38,6 km/h (5 Bft) 100,00 %
04.01.2023 08:08 10,9 C 10,0 C 6,7 C 91 % 1017,6 hPa 0,0 l/m 0 min 0 min 0 W/m 38,6 km/h (5 Bft) 97,14 %
04.01.2023 08:10 10,9 C 10,0 C 6,7 C 91 % 1017,8 hPa 0,0 l/m 0 min 0 min 0 W/m 51,5 km/h (7 Bft) 100,00 %
04.01.2023 08:12 10,9 C 10,0 C 6,7 C 91 % 1017,5 hPa 0,0 l/m 0 min 0 min 0 W/m 38,6 km/h (5 Bft) 100,00 %
04.01.2023 08:14 10,9 C 10,0 C 6,7 C 91 % 1017,5 hPa 0,0 l/m 0 min 0 min 0 W/m 45,1 km/h (6 Bft) 97,87 %
04.01.2023 08:16 10,9 C 10,0 C 6,7 C 91 % 1017,3 hPa 0,0 l/m 0 min 0 min 0 W/m 32,2 km/h (5 Bft) 100,00 %
04.01.2023 08:18 11,0 C 10,6 C 6,7 C 91 % 1017,4 hPa 0,0 l/m 0 min 0 min 0 W/m 38,6 km/h (5 Bft) 100,00 %
04.01.2023 08:20 11,0 C 10,0 C 6,7 C 90 % 1017,4 hPa 0,0 l/m 0 min 0 min 0 W/m 38,6 km/h (5 Bft) 100,00 %
04.01.2023 08:22 11,0 C 10,6 C 6,7 C 90 % 1017,4 hPa 0,0 l/m 0 min 0 min 0 W/m 48,3 km/h (6 Bft) 97,83 %
04.01.2023 08:24 11,0 C 10,6 C 7,2 C 90 % 1017,3 hPa 0,0 l/m 0 min 0 min 0 W/m 35,4 km/h (5 Bft) 97,87 %
04.01.2023 08:26 11,0 C 10,6 C 6,7 C 90 % 1017,3 hPa 0,0 l/m 0 min 0 min 0 W/m 29,0 km/h (5 Bft) 97,87 %
04.01.2023 08:28 11,1 C 10,6 C 6,7 C 90 % 1017,2 hPa 0,0 l/m 0 min 0 min 0 W/m 41,8 km/h (6 Bft) 97,87 %
04.01.2023 08:30 11,1 C 10,6 C 7,2 C 90 % 1017,3 hPa 0,0 l/m 0 min 0 min 0 W/m 38,6 km/h (5 Bft) 97,87 %
04.01.2023 08:32 11,1 C 10,6 C 7,2 C 90 % 1017,3 hPa 0,0 l/m 0 min 0 min 0 W/m 29,0 km/h (5 Bft) 97,87 %
04.01.2023 08:34 11,1 C 10,6 C 7,2 C 90 % 1017,3 hPa 0,0 l/m 0 min 0 min 0 W/m 48,3 km/h (6 Bft) 95,65 %
04.01.2023 08:36 11,1 C 10,6 C 7,2 C 90 % 1017,3 hPa 0,0 l/m 0 min 0 min 0 W/m 57,9 km/h (7 Bft) 95,74 %
04.01.2023 08:38 11,1 C 10,6 C 7,2 C 90 % 1017,3 hPa 0,0 l/m 0 min 0 min 0 W/m 48,3 km/h (6 Bft) 97,87 %
04.01.2023 08:40 11,2 C 10,6 C 7,2 C 90 % 1017,4 hPa 0,0 l/m 0 min 0 min 0 W/m 32,2 km/h (5 Bft) 97,87 %
04.01.2023 08:42 11,2 C 10,6 C 7,2 C 90 % 1017,3 hPa 0,0 l/m 0 min 0 min 0 W/m 57,9 km/h (7 Bft) 97,87 %
04.01.2023 08:44 11,2 C 10,6 C 7,2 C 90 % 1017,3 hPa 0,0 l/m 0 min 0 min 0 W/m 32,2 km/h (5 Bft) 97,87 %
04.01.2023 08:46 11,2 C 10,6 C 7,2 C 90 % 1017,4 hPa 0,0 l/m 0 min 0 min 0 W/m 32,2 km/h (5 Bft) 93,48 %
04.01.2023 08:48 11,2 C 10,6 C 7,2 C 90 % 1017,3 hPa 0,0 l/m 0 min 0 min 0 W/m 32,2 km/h (5 Bft) 97,87 %
04.01.2023 08:50 11,2 C 10,6 C 7,2 C 90 % 1017,2 hPa 0,0 l/m 0 min 0 min 0 W/m 35,4 km/h (5 Bft) 95,74 %
04.01.2023 08:52 11,2 C 10,6 C 7,2 C 90 % 1017,2 hPa 0,0 l/m 0 min 0 min 0 W/m 45,1 km/h (6 Bft) 97,87 %
04.01.2023 08:54 11,2 C 10,6 C 7,2 C 90 % 1017,3 hPa 0,0 l/m 0 min 0 min 0 W/m 35,4 km/h (5 Bft) 95,74 %
04.01.2023 08:56 11,2 C 10,6 C 7,2 C 90 % 1017,3 hPa 0,0 l/m 0 min 0 min 0 W/m 32,2 km/h (5 Bft) 97,87 %
04.01.2023 08:58 11,1 C 10,6 C 7,2 C 90 % 1017,2 hPa 0,0 l/m 0 min 0 min 0 W/m 41,8 km/h (6 Bft) 97,87 %
04.01.2023 09:00 11,1 C 10,6 C 7,2 C 90 % 1017,2 hPa 0,0 l/m 0 min 0 min 0 W/m 51,5 km/h (7 Bft) 97,83 %
04.01.2023 09:02 11,1 C 10,6 C 7,2 C 90 % 1017,2 hPa 0,0 l/m 0 min 0 min 0 W/m 41,8 km/h (6 Bft) 97,87 %
04.01.2023 09:04 11,1 C 10,6 C 7,2 C 90 % 1017,2 hPa 0,0 l/m 0 min 0 min 0 W/m 29,0 km/h (5 Bft) 95,74 %
04.01.2023 09:06 11,1 C 10,6 C 7,2 C 90 % 1017,1 hPa 0,0 l/m 0 min 0 min 0 W/m 41,8 km/h (6 Bft) 97,92 %
04.01.2023 09:08 11,1 C 10,6 C 7,2 C 90 % 1017,2 hPa 0,0 l/m 0 min 0 min 0 W/m 35,4 km/h (5 Bft) 97,87 %
04.01.2023 09:10 11,2 C 10,6 C 7,2 C 90 % 1017,3 hPa 0,0 l/m 0 min 0 min 0 W/m 35,4 km/h (5 Bft) 100,00 %
04.01.2023 09:12 11,2 C 10,6 C 7,2 C 90 % 1017,2 hPa 0,0 l/m 0 min 0 min 0 W/m 54,7 km/h (7 Bft) 95,74 %
04.01.2023 09:14 11,2 C 10,6 C 7,2 C 90 % 1017,2 hPa 0,0 l/m 0 min 0 min 3 W/m 45,1 km/h (6 Bft) 100,00 %
04.01.2023 09:16 11,2 C 10,6 C 7,2 C 90 % 1017,1 hPa 0,0 l/m 0 min 0 min 1 W/m 29,0 km/h (5 Bft) 97,87 %
04.01.2023 09:18 11,2 C 10,6 C 7,2 C 90 % 1017,1 hPa 0,0 l/m 0 min 0 min 2 W/m 41,8 km/h (6 Bft) 100,00 %
04.01.2023 09:20 11,2 C 10,6 C 7,2 C 90 % 1017,0 hPa 0,0 l/m 0 min 0 min 0 W/m 38,6 km/h (5 Bft) 100,00 %
04.01.2023 09:22 11,2 C 10,6 C 7,2 C 90 % 1017,0 hPa 0,0 l/m 0 min 0 min 0 W/m 32,2 km/h (5 Bft) 97,87 %
04.01.2023 09:24 11,2 C 10,6 C 7,2 C 90 % 1017,0 hPa 0,0 l/m 0 min 0 min 0 W/m 38,6 km/h (5 Bft) 95,74 %
04.01.2023 09:26 11,3 C 10,6 C 7,2 C 90 % 1017,1 hPa 0,0 l/m 0 min 0 min 1 W/m 45,1 km/h (6 Bft) 97,83 %
04.01.2023 09:28 11,3 C 10,6 C 7,2 C 90 % 1016,9 hPa 0,0 l/m 0 min 0 min 5 W/m 41,8 km/h (6 Bft) 95,74 %
04.01.2023 09:30 11,3 C 10,6 C 7,2 C 90 % 1016,9 hPa 0,0 l/m 0 min 0 min 7 W/m 35,4 km/h (5 Bft) 51,11 %
04.01.2023 09:32 11,3 C 10,6 C 7,8 C 90 % 1016,9 hPa 0,0 l/m 0 min 0 min 9 W/m 41,8 km/h (6 Bft) 95,74 %
04.01.2023 09:34 11,3 C 10,6 C 7,8 C 91 % 1017,2 hPa 0,0 l/m 0 min 0 min 11 W/m 54,7 km/h (7 Bft) 95,74 %
04.01.2023 09:36 11,3 C 10,6 C 7,8 C 91 % 1017,0 hPa 0,0 l/m 0 min 0 min 11 W/m 41,8 km/h (6 Bft) 89,36 %
04.01.2023 09:38 11,3 C 10,6 C 7,8 C 91 % 1017,0 hPa 0,0 l/m 0 min 0 min 11 W/m 32,2 km/h (5 Bft) 97,83 %
04.01.2023 09:40 11,3 C 10,6 C 7,8 C 91 % 1017,0 hPa 0,0 l/m 0 min 0 min 16 W/m 41,8 km/h (6 Bft) 97,87 %
04.01.2023 09:42 11,3 C 10,6 C 7,2 C 91 % 1017,0 hPa 0,0 l/m 0 min 0 min 16 W/m 41,8 km/h (6 Bft) 97,87 %
04.01.2023 09:44 11,3 C 10,6 C 7,2 C 91 % 1016,9 hPa 0,0 l/m 0 min 0 min 14 W/m 35,4 km/h (5 Bft) 95,74 %
04.01.2023 09:46 11,3 C 10,6 C 7,2 C 91 % 1017,0 hPa 0,0 l/m 0 min 0 min 17 W/m 35,4 km/h (5 Bft) 93,62 %
04.01.2023 09:48 11,2 C 10,6 C 7,2 C 91 % 1017,1 hPa 0,0 l/m 0 min 0 min 16 W/m 38,6 km/h (5 Bft) 97,87 %
04.01.2023 09:50 11,2 C 10,6 C 7,2 C 91 % 1016,9 hPa 0,0 l/m 0 min 0 min 17 W/m 41,8 km/h (6 Bft) 97,87 %
04.01.2023 09:52 11,2 C 10,6 C 7,2 C 92 % 1017,1 hPa 0,0 l/m 0 min 0 min 18 W/m 35,4 km/h (5 Bft) 95,65 %
04.01.2023 09:54 11,2 C 10,6 C 7,2 C 92 % 1017,0 hPa 0,0 l/m 0 min 0 min 13 W/m 38,6 km/h (5 Bft) 95,74 %
04.01.2023 09:56 11,2 C 10,6 C 7,2 C 92 % 1017,0 hPa 0,0 l/m 0 min 0 min 13 W/m 29,0 km/h (5 Bft) 95,74 %
04.01.2023 09:58 11,2 C 10,6 C 7,2 C 92 % 1017,1 hPa 0,0 l/m 0 min 0 min 11 W/m 45,1 km/h (6 Bft) 93,62 %
04.01.2023 10:00 11,1 C 10,6 C 7,2 C 92 % 1017,0 hPa 0,0 l/m 0 min 0 min 11 W/m 61,2 km/h (7 Bft) 97,87 %
04.01.2023 10:02 11,1 C 10,6 C 7,2 C 92 % 1017,1 hPa 0,0 l/m 0 min 0 min 12 W/m 32,2 km/h (5 Bft) 97,87 %
04.01.2023 10:04 11,1 C 10,6 C 7,2 C 92 % 1017,0 hPa 0,0 l/m 0 min 0 min 13 W/m 35,4 km/h (5 Bft) 97,83 %
04.01.2023 10:06 11,1 C 10,6 C 7,2 C 92 % 1017,1 hPa 0,0 l/m 0 min 0 min 14 W/m 41,8 km/h (6 Bft) 97,87 %
04.01.2023 10:08 11,1 C 10,6 C 7,2 C 92 % 1017,0 hPa 0,0 l/m 0 min 0 min 18 W/m 32,2 km/h (5 Bft) 97,87 %
04.01.2023 10:10 11,1 C 10,6 C 7,2 C 92 % 1017,0 hPa 0,0 l/m 0 min 0 min 19 W/m 41,8 km/h (6 Bft) 95,74 %
04.01.2023 10:12 11,2 C 10,6 C 7,8 C 93 % 1017,0 hPa 0,0 l/m 0 min 0 min 20 W/m 41,8 km/h (6 Bft) 97,87 %
04.01.2023 10:14 11,2 C 10,6 C 7,8 C 92 % 1017,1 hPa 0,0 l/m 0 min 0 min 20 W/m 51,5 km/h (7 Bft) 95,74 %
04.01.2023 10:16 11,2 C 10,6 C 7,8 C 92 % 1016,9 hPa 0,0 l/m 0 min 0 min 22 W/m 41,8 km/h (6 Bft) 95,74 %
04.01.2023 10:18 11,3 C 10,6 C 7,8 C 92 % 1016,8 hPa 0,0 l/m 0 min 0 min 22 W/m 32,2 km/h (5 Bft) 95,65 %
04.01.2023 10:20 11,3 C 10,6 C 7,8 C 92 % 1016,8 hPa 0,0 l/m 0 min 0 min 23 W/m 48,3 km/h (6 Bft) 97,87 %
04.01.2023 10:22 11,3 C 11,1 C 7,8 C 92 % 1016,6 hPa 0,0 l/m 0 min 0 min 21 W/m 57,9 km/h (7 Bft) 97,87 %
04.01.2023 10:24 11,4 C 11,1 C 7,8 C 91 % 1016,8 hPa 0,0 l/m 0 min 0 min 19 W/m 35,4 km/h (5 Bft) 97,87 %
04.01.2023 10:26 11,4 C 11,1 C 7,8 C 91 % 1016,7 hPa 0,0 l/m 0 min 0 min 22 W/m 51,5 km/h (7 Bft) 93,62 %
04.01.2023 10:28 11,5 C 11,1 C 7,8 C 91 % 1016,7 hPa 0,0 l/m 0 min 0 min 22 W/m 38,6 km/h (5 Bft) 95,74 %
04.01.2023 10:30 11,6 C 11,1 C 7,8 C 91 % 1016,7 hPa 0,0 l/m 0 min 0 min 22 W/m 48,3 km/h (6 Bft) 97,83 %
04.01.2023 10:32 11,6 C 11,1 C 7,8 C 91 % 1016,7 hPa 0,0 l/m 0 min 0 min 19 W/m 38,6 km/h (5 Bft) 97,87 %
04.01.2023 10:34 11,6 C 11,1 C 7,8 C 91 % 1016,8 hPa 0,0 l/m 0 min 0 min 19 W/m 38,6 km/h (5 Bft) 95,74 %
04.01.2023 10:36 11,6 C 11,1 C 7,8 C 90 % 1016,7 hPa 0,0 l/m 0 min 0 min 22 W/m 41,8 km/h (6 Bft) 97,87 %
04.01.2023 10:38 11,7 C 11,1 C 7,8 C 90 % 1016,8 hPa 0,0 l/m 0 min 0 min 22 W/m 38,6 km/h (5 Bft) 100,00 %
04.01.2023 10:40 11,7 C 11,1 C 7,8 C 90 % 1016,7 hPa 0,0 l/m 0 min 0 min 20 W/m 64,4 km/h (8 Bft) 97,87 %
04.01.2023 10:42 11,7 C 11,1 C 7,8 C 90 % 1016,9 hPa 0,0 l/m 0 min 0 min 21 W/m 29,0 km/h (5 Bft) 97,87 %
04.01.2023 10:44 11,7 C 11,1 C 7,8 C 90 % 1016,8 hPa 0,0 l/m 0 min 0 min 22 W/m 35,4 km/h (5 Bft) 95,65 %
04.01.2023 10:46 11,7 C 11,1 C 7,8 C 90 % 1016,8 hPa 0,0 l/m 0 min 2 min 13 W/m 48,3 km/h (6 Bft) 95,74 %
04.01.2023 10:48 11,7 C 10,6 C 7,2 C 90 % 1016,9 hPa 0,0 l/m 0 min 2 min 14 W/m 38,6 km/h (5 Bft) 100,00 %
04.01.2023 10:50 11,7 C 10,0 C 7,2 C 90 % 1017,0 hPa 0,0 l/m 0 min 2 min 13 W/m 38,6 km/h (5 Bft) 100,00 %
04.01.2023 10:52 11,7 C 10,0 C 6,7 C 90 % 1017,0 hPa 0,0 l/m 0 min 2 min 18 W/m 35,4 km/h (5 Bft) 97,87 %
04.01.2023 10:54 11,6 C 10,0 C 6,7 C 91 % 1016,9 hPa 0,2 l/m 0 min 2 min 19 W/m 32,2 km/h (5 Bft) 87,23 %
04.01.2023 10:56 11,6 C 10,0 C 6,7 C 91 % 1016,9 hPa 0,0 l/m 0 min 0 min 16 W/m 38,6 km/h (5 Bft) 65,96 %
04.01.2023 10:58 11,6 C 10,0 C 6,7 C 91 % 1017,0 hPa 0,0 l/m 0 min 0 min 15 W/m 29,0 km/h (5 Bft) 86,96 %
04.01.2023 11:00 11,5 C 10,0 C 6,7 C 91 % 1017,1 hPa 0,0 l/m 0 min 0 min 16 W/m 38,6 km/h (5 Bft) 70,21 %
04.01.2023 11:02 11,5 C 10,0 C 6,7 C 92 % 1017,0 hPa 0,0 l/m 0 min 0 min 18 W/m 41,8 km/h (6 Bft) 74,47 %
04.01.2023 11:04 11,4 C 10,0 C 6,7 C 92 % 1017,0 hPa 0,0 l/m 0 min 0 min 20 W/m 32,2 km/h (5 Bft) 72,34 %
04.01.2023 11:06 11,4 C 10,0 C 6,7 C 92 % 1017,0 hPa 0,0 l/m 0 min 0 min 21 W/m 29,0 km/h (5 Bft) 68,09 %
04.01.2023 11:08 11,4 C 10,0 C 6,7 C 92 % 1016,9 hPa 0,0 l/m 0 min 0 min 19 W/m 38,6 km/h (5 Bft) 57,45 %
04.01.2023 11:10 11,4 C 10,6 C 6,7 C 92 % 1016,9 hPa 0,0 l/m 0 min 0 min 18 W/m 45,1 km/h (6 Bft) 40,43 %
04.01.2023 11:12 11,5 C 10,6 C 6,7 C 92 % 1017,0 hPa 0,0 l/m 0 min 0 min 18 W/m 41,8 km/h (6 Bft) 47,83 %
04.01.2023 11:14 11,5 C 10,6 C 7,2 C 92 % 1016,9 hPa 0,0 l/m 0 min 0 min 19 W/m 45,1 km/h (6 Bft) 48,94 %
04.01.2023 11:16 11,6 C 10,6 C 7,2 C 92 % 1017,0 hPa 0,0 l/m 0 min 2 min 18 W/m 35,4 km/h (5 Bft) 87,23 %
04.01.2023 11:18 11,6 C 10,0 C 6,7 C 92 % 1017,0 hPa 0,2 l/m 0 min 2 min 19 W/m 38,6 km/h (5 Bft) 95,74 %
04.01.2023 11:20 11,5 C 10,0 C 6,7 C 92 % 1017,0 hPa 0,0 l/m 0 min 2 min 21 W/m 25,7 km/h (4 Bft) 97,87 %
04.01.2023 11:22 11,5 C 10,0 C 6,7 C 92 % 1016,9 hPa 0,0 l/m 0 min 0 min 22 W/m 41,8 km/h (6 Bft) 95,74 %
04.01.2023 11:24 11,4 C 10,0 C 6,7 C 92 % 1016,9 hPa 0,0 l/m 0 min 0 min 25 W/m 25,7 km/h (4 Bft) 95,74 %
04.01.2023 11:26 11,4 C 10,0 C 6,7 C 93 % 1016,9 hPa 0,0 l/m 0 min 0 min 26 W/m 38,6 km/h (5 Bft) 95,65 %
04.01.2023 11:28 11,4 C 10,0 C 6,7 C 93 % 1016,8 hPa 0,0 l/m 0 min 0 min 28 W/m 38,6 km/h (5 Bft) 91,49 %
04.01.2023 11:30 11,4 C 10,0 C 6,7 C 93 % 1016,8 hPa 0,0 l/m 0 min 0 min 36 W/m 38,6 km/h (5 Bft) 93,62 %
04.01.2023 11:32 11,4 C 10,0 C 7,2 C 93 % 1016,7 hPa 0,0 l/m 0 min 2 min 39 W/m 35,4 km/h (5 Bft) 95,74 %
04.01.2023 11:34 11,4 C 10,0 C 7,2 C 93 % 1016,7 hPa 0,0 l/m 0 min 2 min 41 W/m 32,2 km/h (5 Bft) 95,74 %
04.01.2023 11:36 11,4 C 10,0 C 7,2 C 93 % 1016,7 hPa 0,0 l/m 0 min 2 min 42 W/m 48,3 km/h (6 Bft) 95,74 %
04.01.2023 11:38 11,5 C 10,0 C 7,2 C 93 % 1016,6 hPa 0,0 l/m 0 min 2 min 42 W/m 45,1 km/h (6 Bft) 95,65 %
04.01.2023 11:40 11,5 C 10,6 C 7,2 C 93 % 1016,6 hPa 0,0 l/m 0 min 2 min 41 W/m 38,6 km/h (5 Bft) 95,74 %
04.01.2023 11:42 11,5 C 10,6 C 7,2 C 93 % 1016,5 hPa 0,0 l/m 0 min 2 min 41 W/m 32,2 km/h (5 Bft) 93,62 %
04.01.2023 11:44 11,5 C 10,6 C 7,2 C 93 % 1016,5 hPa 0,0 l/m 0 min 2 min 42 W/m 48,3 km/h (6 Bft) 93,62 %
04.01.2023 11:46 11,5 C 10,6 C 7,2 C 93 % 1016,5 hPa 0,0 l/m 0 min 2 min 58 W/m 22,5 km/h (4 Bft) 93,62 %
04.01.2023 11:48 11,5 C 10,6 C 7,2 C 94 % 1016,4 hPa 0,0 l/m 0 min 2 min 53 W/m 38,6 km/h (5 Bft) 93,62 %
04.01.2023 11:50 11,5 C 10,6 C 7,2 C 94 % 1016,4 hPa 0,0 l/m 0 min 2 min 48 W/m 32,2 km/h (5 Bft) 95,65 %
04.01.2023 11:52 11,5 C 10,6 C 7,2 C 94 % 1016,3 hPa 0,0 l/m 0 min 2 min 52 W/m 35,4 km/h (5 Bft) 95,74 %
04.01.2023 11:54 11,6 C 10,6 C 7,2 C 94 % 1016,3 hPa 0,0 l/m 0 min 2 min 56 W/m 32,2 km/h (5 Bft) 91,49 %
04.01.2023 11:56 11,6 C 10,6 C 7,2 C 94 % 1016,4 hPa 0,0 l/m 0 min 2 min 72 W/m 35,4 km/h (5 Bft) 95,74 %
04.01.2023 11:58 11,6 C 10,6 C 7,2 C 94 % 1016,4 hPa 0,0 l/m 0 min 2 min 80 W/m 32,2 km/h (5 Bft) 100,00 %
04.01.2023 12:00 11,6 C 10,6 C 7,2 C 94 % 1016,3 hPa 0,0 l/m 0 min 2 min 72 W/m 38,6 km/h (5 Bft) 100,00 %
04.01.2023 12:02 11,6 C 10,6 C 7,2 C 94 % 1016,4 hPa 0,0 l/m 0 min 2 min 55 W/m 25,7 km/h (4 Bft) 100,00 %
04.01.2023 12:04 11,6 C 10,6 C 7,2 C 94 % 1016,3 hPa 0,0 l/m 0 min 2 min 51 W/m 29,0 km/h (5 Bft) 97,87 %
04.01.2023 12:06 11,6 C 10,6 C 7,2 C 94 % 1016,3 hPa 0,0 l/m 0 min 2 min 56 W/m 48,3 km/h (6 Bft) 100,00 %
04.01.2023 12:08 11,6 C 10,6 C 7,2 C 94 % 1016,3 hPa 0,0 l/m 0 min 2 min 45 W/m 51,5 km/h (7 Bft) 100,00 %
04.01.2023 12:10 11,7 C 10,6 C 7,2 C 94 % 1016,3 hPa 0,0 l/m 0 min 2 min 57 W/m 32,2 km/h (5 Bft) 97,87 %
04.01.2023 12:12 11,7 C 10,6 C 7,2 C 94 % 1016,3 hPa 0,0 l/m 0 min 2 min 52 W/m 41,8 km/h (6 Bft) 97,87 %
04.01.2023 12:14 11,7 C 11,1 C 7,2 C 94 % 1016,1 hPa 0,0 l/m 0 min 2 min 56 W/m 41,8 km/h (6 Bft) 100,00 %
04.01.2023 12:16 11,7 C 11,1 C 7,2 C 94 % 1016,2 hPa 0,0 l/m 0 min 2 min 55 W/m 48,3 km/h (6 Bft) 100,00 %
04.01.2023 12:18 11,7 C 11,1 C 7,2 C 94 % 1016,2 hPa 0,0 l/m 0 min 2 min 55 W/m 48,3 km/h (6 Bft) 100,00 %
04.01.2023 12:20 11,7 C 11,1 C 7,2 C 94 % 1016,1 hPa 0,0 l/m 0 min 2 min 54 W/m 29,0 km/h (5 Bft) 97,87 %
04.01.2023 12:22 11,7 C 11,1 C 7,2 C 93 % 1016,2 hPa 0,0 l/m 0 min 2 min 52 W/m 29,0 km/h (5 Bft) 97,87 %
04.01.2023 12:24 11,7 C 11,1 C 7,2 C 94 % 1016,2 hPa 0,0 l/m 0 min 2 min 45 W/m 29,0 km/h (5 Bft) 100,00 %
04.01.2023 12:26 11,7 C 11,1 C 7,2 C 94 % 1016,2 hPa 0,0 l/m 0 min 2 min 48 W/m 35,4 km/h (5 Bft) 100,00 %
04.01.2023 12:28 11,7 C 11,1 C 7,2 C 94 % 1016,2 hPa 0,0 l/m 0 min 2 min 37 W/m 22,5 km/h (4 Bft) 97,87 %
04.01.2023 12:30 11,7 C 11,1 C 7,2 C 94 % 1016,1 hPa 0,0 l/m 0 min 2 min 43 W/m 25,7 km/h (4 Bft) 95,74 %
04.01.2023 12:32 11,7 C 11,1 C 7,2 C 94 % 1016,1 hPa 0,0 l/m 0 min 2 min 44 W/m 35,4 km/h (5 Bft) 100,00 %
04.01.2023 12:34 11,7 C 11,1 C 7,2 C 94 % 1016,1 hPa 0,0 l/m 0 min 0 min 38 W/m 32,2 km/h (5 Bft) 95,74 %
04.01.2023 12:36 11,7 C 11,1 C 7,2 C 94 % 1016,1 hPa 0,0 l/m 0 min 0 min 29 W/m 29,0 km/h (5 Bft) 97,87 %
04.01.2023 12:38 11,7 C 11,1 C 7,2 C 94 % 1016,2 hPa 0,0 l/m 0 min 0 min 33 W/m 35,4 km/h (5 Bft) 93,62 %
04.01.2023 12:40 11,7 C 11,1 C 7,2 C 94 % 1016,2 hPa 0,0 l/m 0 min 0 min 35 W/m 29,0 km/h (5 Bft) 95,74 %
04.01.2023 12:42 11,7 C 11,1 C 7,2 C 94 % 1016,2 hPa 0,0 l/m 0 min 0 min 37 W/m 29,0 km/h (5 Bft) 93,62 %
04.01.2023 12:44 11,6 C 10,6 C 7,2 C 94 % 1016,2 hPa 0,0 l/m 0 min 2 min 36 W/m 38,6 km/h (5 Bft) 97,87 %
04.01.2023 12:46 11,6 C 10,6 C 7,2 C 94 % 1016,1 hPa 0,0 l/m 0 min 2 min 31 W/m 32,2 km/h (5 Bft) 97,83 %
04.01.2023 12:48 11,6 C 10,6 C 7,2 C 94 % 1016,1 hPa 0,0 l/m 0 min 2 min 32 W/m 45,1 km/h (6 Bft) 97,87 %
04.01.2023 12:50 11,6 C 10,6 C 7,2 C 94 % 1016,0 hPa 0,0 l/m 0 min 2 min 46 W/m 38,6 km/h (5 Bft) 95,74 %
04.01.2023 12:52 11,6 C 10,6 C 7,2 C 94 % 1016,0 hPa 0,0 l/m 0 min 2 min 47 W/m 54,7 km/h (7 Bft) 97,87 %
04.01.2023 12:54 11,6 C 10,6 C 7,2 C 94 % 1015,9 hPa 0,0 l/m 0 min 2 min 41 W/m 48,3 km/h (6 Bft) 95,74 %
04.01.2023 12:56 11,6 C 10,6 C 7,2 C 94 % 1016,0 hPa 0,0 l/m 0 min 2 min 37 W/m 41,8 km/h (6 Bft) 97,87 %
04.01.2023 12:58 11,7 C 10,6 C 7,2 C 94 % 1015,9 hPa 0,0 l/m 0 min 2 min 34 W/m 77,2 km/h (9 Bft) 97,83 %
04.01.2023 13:00 11,7 C 10,6 C 7,2 C 94 % 1015,8 hPa 0,0 l/m 0 min 2 min 33 W/m 45,1 km/h (6 Bft) 97,87 %
04.01.2023 13:02 11,7 C 10,6 C 7,2 C 94 % 1016,0 hPa 0,0 l/m 0 min 2 min 28 W/m 32,2 km/h (5 Bft) 97,87 %
04.01.2023 13:04 11,7 C 10,6 C 7,2 C 94 % 1015,9 hPa 0,0 l/m 0 min 2 min 35 W/m 29,0 km/h (5 Bft) 97,87 %
04.01.2023 13:06 11,7 C 10,6 C 7,2 C 94 % 1015,8 hPa 0,0 l/m 0 min 2 min 40 W/m 41,8 km/h (6 Bft) 95,74 %
04.01.2023 13:08 11,7 C 10,6 C 7,2 C 94 % 1015,9 hPa 0,0 l/m 0 min 2 min 28 W/m 48,3 km/h (6 Bft) 97,87 %
04.01.2023 13:10 11,7 C 10,6 C 7,2 C 94 % 1015,9 hPa 0,2 l/m 0 min 2 min 25 W/m 35,4 km/h (5 Bft) 95,74 %
04.01.2023 13:12 11,7 C 10,6 C 7,2 C 94 % 1015,8 hPa 0,0 l/m 0 min 2 min 37 W/m 51,5 km/h (7 Bft) 97,83 %
04.01.2023 13:14 11,7 C 10,6 C 7,2 C 95 % 1015,8 hPa 0,0 l/m 0 min 2 min 46 W/m 32,2 km/h (5 Bft) 95,74 %
04.01.2023 13:16 11,7 C 10,6 C 7,2 C 95 % 1015,7 hPa 0,0 l/m 0 min 2 min 40 W/m 19,3 km/h (3 Bft) 97,87 %
04.01.2023 13:18 11,7 C 10,6 C 7,2 C 95 % 1015,7 hPa 0,0 l/m 0 min 2 min 37 W/m 32,2 km/h (5 Bft) 95,74 %
04.01.2023 13:20 11,7 C 10,6 C 7,2 C 95 % 1015,7 hPa 0,0 l/m 0 min 2 min 39 W/m 48,3 km/h (6 Bft) 97,87 %
04.01.2023 13:22 11,6 C 10,6 C 7,2 C 95 % 1015,7 hPa 0,0 l/m 0 min 2 min 41 W/m 32,2 km/h (5 Bft) 95,74 %
04.01.2023 13:24 11,6 C 10,6 C 7,8 C 95 % 1015,7 hPa 0,0 l/m 0 min 2 min 53 W/m 35,4 km/h (5 Bft) 95,74 %
04.01.2023 13:26 11,6 C 10,6 C 7,8 C 95 % 1015,7 hPa 0,0 l/m 0 min 2 min 50 W/m 41,8 km/h (6 Bft) 97,83 %
04.01.2023 13:28 11,6 C 10,6 C 7,8 C 95 % 1015,7 hPa 0,0 l/m 0 min 2 min 54 W/m 19,3 km/h (3 Bft) 97,87 %
04.01.2023 13:30 11,6 C 10,6 C 7,8 C 95 % 1015,6 hPa 0,0 l/m 0 min 2 min 50 W/m 35,4 km/h (5 Bft) 97,87 %
04.01.2023 13:32 11,6 C 10,6 C 7,8 C 95 % 1015,6 hPa 0,0 l/m 0 min 2 min 52 W/m 45,1 km/h (6 Bft) 95,74 %
04.01.2023 13:34 11,6 C 10,6 C 7,8 C 95 % 1015,6 hPa 0,0 l/m 0 min 2 min 45 W/m 41,8 km/h (6 Bft) 95,74 %
04.01.2023 13:36 11,6 C 10,6 C 7,8 C 95 % 1015,5 hPa 0,0 l/m 0 min 2 min 54 W/m 57,9 km/h (7 Bft) 97,87 %
04.01.2023 13:38 11,6 C 10,6 C 7,8 C 95 % 1015,4 hPa 0,0 l/m 0 min 2 min 63 W/m 48,3 km/h (6 Bft) 97,83 %
04.01.2023 13:40 11,6 C 10,6 C 7,8 C 96 % 1015,3 hPa 0,0 l/m 0 min 2 min 62 W/m 38,6 km/h (5 Bft) 95,74 %
04.01.2023 13:42 11,6 C 10,6 C 7,8 C 96 % 1015,3 hPa 0,0 l/m 0 min 2 min 58 W/m 38,6 km/h (5 Bft) 95,74 %
04.01.2023 13:44 11,6 C 10,6 C 7,8 C 96 % 1015,4 hPa 0,2 l/m 0 min 2 min 49 W/m 45,1 km/h (6 Bft) 97,87 %
04.01.2023 13:46 11,6 C 10,6 C 7,8 C 96 % 1015,4 hPa 0,0 l/m 0 min 2 min 48 W/m 29,0 km/h (5 Bft) 97,87 %
04.01.2023 13:48 11,6 C 10,6 C 7,8 C 96 % 1015,4 hPa 0,0 l/m 0 min 2 min 48 W/m 25,7 km/h (4 Bft) 93,62 %
04.01.2023 13:50 11,6 C 10,6 C 7,8 C 96 % 1015,3 hPa 0,0 l/m 0 min 2 min 46 W/m 41,8 km/h (6 Bft) 97,87 %
04.01.2023 13:52 11,6 C 10,6 C 7,8 C 96 % 1015,4 hPa 0,0 l/m 0 min 2 min 53 W/m 35,4 km/h (5 Bft) 95,65 %
04.01.2023 13:54 11,7 C 10,6 C 7,8 C 96 % 1015,4 hPa 0,0 l/m 0 min 2 min 53 W/m 32,2 km/h (5 Bft) 100,00 %
04.01.2023 13:56 11,7 C 10,6 C 7,8 C 96 % 1015,4 hPa 0,0 l/m 0 min 2 min 62 W/m 35,4 km/h (5 Bft) 100,00 %
04.01.2023 13:58 11,7 C 11,1 C 7,8 C 96 % 1015,4 hPa 0,0 l/m 0 min 2 min 52 W/m 35,4 km/h (5 Bft) 100,00 %
04.01.2023 14:00 11,7 C 11,1 C 7,8 C 96 % 1015,5 hPa 0,0 l/m 0 min 2 min 38 W/m 48,3 km/h (6 Bft) 97,87 %
04.01.2023 14:02 11,7 C 11,1 C 7,8 C 96 % 1015,5 hPa 0,0 l/m 0 min 2 min 35 W/m 41,8 km/h (6 Bft) 97,87 %
04.01.2023 14:04 11,7 C 11,1 C 7,8 C 96 % 1015,4 hPa 0,0 l/m 0 min 2 min 47 W/m 29,0 km/h (5 Bft) 95,65 %
04.01.2023 14:06 11,7 C 11,1 C 7,8 C 96 % 1015,3 hPa 0,0 l/m 0 min 2 min 58 W/m 35,4 km/h (5 Bft) 97,87 %
04.01.2023 14:08 11,8 C 11,1 C 7,8 C 96 % 1015,4 hPa 0,0 l/m 0 min 2 min 47 W/m 22,5 km/h (4 Bft) 97,87 %
04.01.2023 14:10 11,8 C 11,1 C 7,8 C 96 % 1015,3 hPa 0,0 l/m 0 min 2 min 47 W/m 61,2 km/h (7 Bft) 97,87 %
04.01.2023 14:12 11,8 C 11,1 C 7,8 C 96 % 1015,4 hPa 0,0 l/m 0 min 2 min 43 W/m 19,3 km/h (3 Bft) 97,87 %
04.01.2023 14:14 11,8 C 11,1 C 7,8 C 96 % 1015,3 hPa 0,0 l/m 0 min 0 min 41 W/m 51,5 km/h (7 Bft) 97,87 %
04.01.2023 14:16 11,8 C 11,1 C 7,8 C 96 % 1015,3 hPa 0,0 l/m 0 min 2 min 43 W/m 29,0 km/h (5 Bft) 97,87 %
04.01.2023 14:18 11,8 C 11,1 C 7,8 C 96 % 1015,2 hPa 0,0 l/m 0 min 2 min 45 W/m 29,0 km/h (5 Bft) 97,83 %
04.01.2023 14:20 11,8 C 11,1 C 7,8 C 96 % 1015,2 hPa 0,0 l/m 0 min 2 min 34 W/m 29,0 km/h (5 Bft) 97,87 %
04.01.2023 14:22 11,8 C 11,1 C 7,8 C 96 % 1015,3 hPa 0,0 l/m 0 min 0 min 26 W/m 19,3 km/h (3 Bft) 95,74 %
04.01.2023 14:24 11,9 C 11,1 C 7,8 C 96 % 1015,4 hPa 0,0 l/m 0 min 0 min 28 W/m 22,5 km/h (4 Bft) 97,87 %
04.01.2023 14:26 11,9 C 11,1 C 7,8 C 95 % 1015,3 hPa 0,0 l/m 0 min 0 min 32 W/m 22,5 km/h (4 Bft) 97,87 %
04.01.2023 14:28 11,9 C 11,1 C 7,8 C 95 % 1015,4 hPa 0,0 l/m 0 min 0 min 28 W/m 19,3 km/h (3 Bft) 97,87 %
04.01.2023 14:30 11,9 C 11,1 C 7,8 C 95 % 1015,4 hPa 0,0 l/m 0 min 0 min 34 W/m 19,3 km/h (3 Bft) 97,83 %
04.01.2023 14:32 11,9 C 11,1 C 7,8 C 95 % 1015,4 hPa 0,0 l/m 0 min 2 min 33 W/m 29,0 km/h (5 Bft) 95,74 %
04.01.2023 14:34 11,9 C 11,1 C 7,8 C 95 % 1015,3 hPa 0,0 l/m 0 min 2 min 33 W/m 29,0 km/h (5 Bft) 97,87 %
04.01.2023 14:36 11,9 C 11,1 C 7,8 C 96 % 1015,2 hPa 0,0 l/m 0 min 2 min 31 W/m 54,7 km/h (7 Bft) 97,87 %
04.01.2023 14:38 11,9 C 11,1 C 7,8 C 95 % 1015,3 hPa 0,0 l/m 0 min 2 min 31 W/m 35,4 km/h (5 Bft) 97,87 %
04.01.2023 14:40 11,9 C 11,1 C 7,8 C 95 % 1015,3 hPa 0,0 l/m 0 min 2 min 26 W/m 16,1 km/h (3 Bft) 95,74 %
04.01.2023 14:42 11,9 C 11,1 C 7,8 C 95 % 1015,2 hPa 0,0 l/m 0 min 2 min 34 W/m 29,0 km/h (5 Bft) 97,87 %
04.01.2023 14:44 11,9 C 11,1 C 7,8 C 95 % 1015,3 hPa 0,0 l/m 0 min 2 min 33 W/m 41,8 km/h (6 Bft) 95,65 %
04.01.2023 14:46 11,9 C 11,7 C 7,8 C 95 % 1015,2 hPa 0,0 l/m 0 min 0 min 37 W/m 19,3 km/h (3 Bft) 97,87 %
04.01.2023 14:48 11,9 C 11,7 C 7,8 C 95 % 1015,2 hPa 0,0 l/m 0 min 0 min 36 W/m 22,5 km/h (4 Bft) 97,87 %
04.01.2023 14:50 11,9 C 11,7 C 7,8 C 95 % 1015,3 hPa 0,0 l/m 0 min 0 min 34 W/m 57,9 km/h (7 Bft) 100,00 %
04.01.2023 14:52 11,9 C 11,7 C 7,8 C 95 % 1015,1 hPa 0,0 l/m 0 min 0 min 35 W/m 19,3 km/h (3 Bft) 97,87 %
04.01.2023 14:54 12,0 C 11,7 C 7,8 C 95 % 1015,2 hPa 0,0 l/m 0 min 0 min 34 W/m 29,0 km/h (5 Bft) 97,87 %
04.01.2023 14:56 12,0 C 11,7 C 7,8 C 95 % 1015,1 hPa 0,0 l/m 0 min 0 min 30 W/m 19,3 km/h (3 Bft) 95,65 %
04.01.2023 14:58 12,1 C 11,7 C 7,8 C 95 % 1015,1 hPa 0,0 l/m 0 min 0 min 30 W/m 32,2 km/h (5 Bft) 95,74 %
04.01.2023 15:00 12,1 C 11,7 C 7,8 C 95 % 1015,0 hPa 0,0 l/m 0 min 0 min 26 W/m 35,4 km/h (5 Bft) 100,00 %
04.01.2023 15:02 12,1 C 11,7 C 8,3 C 95 % 1015,0 hPa 0,0 l/m 0 min 0 min 24 W/m 41,8 km/h (6 Bft) 95,74 %
04.01.2023 15:04 12,1 C 11,7 C 8,3 C 95 % 1015,1 hPa 0,0 l/m 0 min 0 min 26 W/m 45,1 km/h (6 Bft) 97,87 %
04.01.2023 15:06 12,1 C 11,7 C 8,3 C 95 % 1015,1 hPa 0,0 l/m 0 min 0 min 25 W/m 45,1 km/h (6 Bft) 97,87 %
04.01.2023 15:08 12,1 C 11,7 C 8,3 C 95 % 1015,0 hPa 0,0 l/m 0 min 0 min 24 W/m 29,0 km/h (5 Bft) 100,00 %
04.01.2023 15:10 12,2 C 11,7 C 8,3 C 95 % 1015,1 hPa 0,0 l/m 0 min 0 min 21 W/m 45,1 km/h (6 Bft) 100,00 %
04.01.2023 15:12 12,2 C 11,7 C 8,3 C 95 % 1015,0 hPa 0,0 l/m 0 min 0 min 24 W/m 54,7 km/h (7 Bft) 95,74 %
04.01.2023 15:14 12,2 C 11,7 C 8,3 C 95 % 1015,1 hPa 0,0 l/m 0 min 0 min 24 W/m 19,3 km/h (3 Bft) 97,87 %
04.01.2023 15:16 12,2 C 11,7 C 8,3 C 95 % 1015,0 hPa 0,0 l/m 0 min 0 min 22 W/m 22,5 km/h (4 Bft) 95,74 %
04.01.2023 15:18 12,2 C 11,7 C 8,3 C 95 % 1015,0 hPa 0,0 l/m 0 min 2 min 17 W/m 29,0 km/h (5 Bft) 95,74 %
04.01.2023 15:20 12,2 C 11,7 C 8,3 C 95 % 1015,0 hPa 0,0 l/m 0 min 2 min 18 W/m 35,4 km/h (5 Bft) 95,74 %
04.01.2023 15:22 12,2 C 11,1 C 8,3 C 95 % 1015,0 hPa 0,0 l/m 0 min 2 min 21 W/m 16,1 km/h (3 Bft) 93,62 %
04.01.2023 15:24 12,2 C 11,1 C 8,3 C 95 % 1015,0 hPa 0,0 l/m 0 min 2 min 22 W/m 22,5 km/h (4 Bft) 93,48 %
04.01.2023 15:26 12,1 C 11,1 C 8,3 C 95 % 1015,0 hPa 0,0 l/m 0 min 2 min 24 W/m 29,0 km/h (5 Bft) 95,74 %
04.01.2023 15:28 12,1 C 11,1 C 8,3 C 95 % 1015,0 hPa 0,0 l/m 0 min 2 min 24 W/m 38,6 km/h (5 Bft) 91,49 %
04.01.2023 15:30 12,1 C 11,1 C 8,3 C 95 % 1015,0 hPa 0,0 l/m 0 min 2 min 24 W/m 25,7 km/h (4 Bft) 95,74 %
04.01.2023 15:32 12,1 C 11,1 C 8,3 C 95 % 1014,9 hPa 0,0 l/m 0 min 2 min 22 W/m 35,4 km/h (5 Bft) 97,87 %
04.01.2023 15:34 12,1 C 11,1 C 8,3 C 95 % 1015,0 hPa 0,0 l/m 0 min 2 min 23 W/m 25,7 km/h (4 Bft) 95,74 %
04.01.2023 15:36 12,1 C 11,1 C 8,3 C 96 % 1015,0 hPa 0,0 l/m 0 min 2 min 22 W/m 25,7 km/h (4 Bft) 95,65 %
04.01.2023 15:38 12,1 C 11,1 C 8,3 C 96 % 1014,9 hPa 0,0 l/m 0 min 2 min 21 W/m 32,2 km/h (5 Bft) 95,74 %
04.01.2023 15:40 12,1 C 11,1 C 8,3 C 96 % 1015,0 hPa 0,0 l/m 0 min 2 min 29 W/m 32,2 km/h (5 Bft) 95,74 %
04.01.2023 15:42 12,1 C 11,1 C 8,3 C 96 % 1014,9 hPa 0,0 l/m 0 min 2 min 28 W/m 32,2 km/h (5 Bft) 95,74 %
04.01.2023 15:44 12,1 C 11,7 C 8,3 C 96 % 1015,0 hPa 0,0 l/m 0 min 2 min 25 W/m 19,3 km/h (3 Bft) 95,74 %
04.01.2023 15:46 12,1 C 11,7 C 8,3 C 96 % 1015,0 hPa 0,0 l/m 0 min 0 min 19 W/m 25,7 km/h (4 Bft) 95,74 %
04.01.2023 15:48 12,1 C 11,7 C 8,3 C 96 % 1014,9 hPa 0,0 l/m 0 min 0 min 17 W/m 29,0 km/h (5 Bft) 97,87 %
04.01.2023 15:50 12,1 C 11,7 C 8,3 C 96 % 1015,0 hPa 0,0 l/m 0 min 0 min 14 W/m 16,1 km/h (3 Bft) 97,83 %
04.01.2023 15:52 12,2 C 11,7 C 8,3 C 96 % 1014,9 hPa 0,0 l/m 0 min 0 min 17 W/m 29,0 km/h (5 Bft) 97,87 %
04.01.2023 15:54 12,2 C 11,7 C 8,3 C 96 % 1014,9 hPa 0,0 l/m 0 min 0 min 24 W/m 29,0 km/h (5 Bft) 97,87 %
04.01.2023 15:56 12,2 C 11,7 C 8,3 C 96 % 1015,0 hPa 0,0 l/m 0 min 0 min 23 W/m 22,5 km/h (4 Bft) 100,00 %
04.01.2023 15:58 12,2 C 11,7 C 8,3 C 96 % 1015,0 hPa 0,0 l/m 0 min 0 min 21 W/m 19,3 km/h (3 Bft) 100,00 %
04.01.2023 16:00 12,2 C 11,7 C 8,3 C 95 % 1014,9 hPa 0,0 l/m 0 min 0 min 22 W/m 22,5 km/h (4 Bft) 97,87 %
04.01.2023 16:02 12,2 C 11,7 C 8,3 C 95 % 1014,9 hPa 0,0 l/m 0 min 0 min 20 W/m 25,7 km/h (4 Bft) 100,00 %
04.01.2023 16:04 12,2 C 11,7 C 8,3 C 95 % 1014,9 hPa 0,0 l/m 0 min 0 min 18 W/m 19,3 km/h (3 Bft) 95,65 %
04.01.2023 16:06 12,2 C 11,7 C 8,3 C 95 % 1014,9 hPa 0,0 l/m 0 min 0 min 17 W/m 48,3 km/h (6 Bft) 97,92 %
04.01.2023 16:08 12,2 C 11,7 C 8,3 C 95 % 1014,8 hPa 0,0 l/m 0 min 0 min 17 W/m 19,3 km/h (3 Bft) 100,00 %
04.01.2023 16:10 12,2 C 11,7 C 8,3 C 95 % 1014,9 hPa 0,0 l/m 0 min 0 min 13 W/m 16,1 km/h (3 Bft) 100,00 %
04.01.2023 16:12 12,3 C 11,7 C 8,3 C 95 % 1014,9 hPa 0,0 l/m 0 min 0 min 14 W/m 22,5 km/h (4 Bft) 100,00 %
04.01.2023 16:14 12,3 C 11,7 C 8,3 C 95 % 1015,0 hPa 0,0 l/m 0 min 0 min 13 W/m 22,5 km/h (4 Bft) 100,00 %
04.01.2023 16:16 12,3 C 11,7 C 8,3 C 95 % 1015,0 hPa 0,0 l/m 0 min 0 min 10 W/m 22,5 km/h (4 Bft) 100,00 %
04.01.2023 16:18 12,3 C 11,7 C 8,3 C 95 % 1014,9 hPa 0,0 l/m 0 min 0 min 7 W/m 25,7 km/h (4 Bft) 100,00 %
04.01.2023 16:20 12,3 C 11,7 C 8,3 C 95 % 1014,9 hPa 0,0 l/m 0 min 0 min 7 W/m 22,5 km/h (4 Bft) 100,00 %
04.01.2023 16:22 12,3 C 11,7 C 8,3 C 95 % 1014,9 hPa 0,0 l/m 0 min 0 min 7 W/m 25,7 km/h (4 Bft) 97,87 %
04.01.2023 16:24 12,3 C 11,7 C 8,3 C 95 % 1015,0 hPa 0,0 l/m 0 min 0 min 5 W/m 32,2 km/h (5 Bft) 97,87 %
04.01.2023 16:26 12,3 C 11,7 C 8,3 C 95 % 1015,1 hPa 0,0 l/m 0 min 0 min 5 W/m 12,9 km/h (3 Bft) 100,00 %
04.01.2023 16:28 12,3 C 11,7 C 8,3 C 95 % 1015,0 hPa 0,0 l/m 0 min 0 min 4 W/m 19,3 km/h (3 Bft) 91,49 %
04.01.2023 16:30 12,3 C 11,7 C 8,3 C 94 % 1014,9 hPa 0,0 l/m 0 min 0 min 0 W/m 22,5 km/h (4 Bft) 87,23 %
04.01.2023 16:32 12,4 C 11,7 C 8,9 C 94 % 1014,9 hPa 0,0 l/m 0 min 0 min 0 W/m 29,0 km/h (5 Bft) 91,30 %
04.01.2023 16:34 12,4 C 11,7 C 8,9 C 94 % 1015,1 hPa 0,0 l/m 0 min 0 min 0 W/m 22,5 km/h (4 Bft) 100,00 %
04.01.2023 16:36 12,4 C 11,7 C 8,9 C 94 % 1015,1 hPa 0,0 l/m 0 min 0 min 0 W/m 16,1 km/h (3 Bft) 100,00 %
04.01.2023 16:38 12,4 C 11,7 C 8,9 C 94 % 1015,1 hPa 0,0 l/m 0 min 0 min 0 W/m 22,5 km/h (4 Bft) 97,87 %
04.01.2023 16:40 12,4 C 11,7 C 8,9 C 94 % 1015,0 hPa 0,0 l/m 0 min 0 min 0 W/m 29,0 km/h (5 Bft) 100,00 %
04.01.2023 16:42 12,4 C 11,7 C 8,9 C 94 % 1015,0 hPa 0,0 l/m 0 min 0 min 0 W/m 22,5 km/h (4 Bft) 97,87 %
04.01.2023 16:44 12,4 C 11,7 C 8,9 C 94 % 1015,0 hPa 0,0 l/m 0 min 0 min 0 W/m 29,0 km/h (5 Bft) 91,30 %
04.01.2023 16:46 12,4 C 11,7 C 8,9 C 94 % 1015,1 hPa 0,0 l/m 0 min 2 min 0 W/m 41,8 km/h (6 Bft) 97,87 %
04.01.2023 16:48 12,4 C 11,7 C 8,9 C 94 % 1014,9 hPa 0,0 l/m 0 min 2 min 0 W/m 22,5 km/h (4 Bft) 100,00 %
04.01.2023 16:50 12,4 C 11,7 C 8,9 C 94 % 1015,0 hPa 0,0 l/m 0 min 2 min 0 W/m 22,5 km/h (4 Bft) 100,00 %
04.01.2023 16:52 12,4 C 11,7 C 8,9 C 94 % 1015,0 hPa 0,0 l/m 0 min 2 min 0 W/m 16,1 km/h (3 Bft) 100,00 %
04.01.2023 16:54 12,4 C 11,7 C 8,3 C 94 % 1015,0 hPa 0,0 l/m 0 min 2 min 0 W/m 22,5 km/h (4 Bft) 100,00 %
04.01.2023 16:56 12,4 C 11,7 C 8,3 C 94 % 1015,0 hPa 0,0 l/m 0 min 2 min 0 W/m 25,7 km/h (4 Bft) 95,65 %
04.01.2023 16:58 12,3 C 11,1 C 8,3 C 94 % 1015,0 hPa 0,0 l/m 0 min 2 min 0 W/m 19,3 km/h (3 Bft) 97,87 %
04.01.2023 17:00 12,3 C 11,1 C 8,3 C 94 % 1015,0 hPa 0,0 l/m 0 min 2 min 0 W/m 22,5 km/h (4 Bft) 97,87 %
04.01.2023 17:02 12,2 C 11,1 C 7,8 C 94 % 1015,1 hPa 0,4 l/m 0 min 2 min 0 W/m 22,5 km/h (4 Bft) 95,74 %
04.01.2023 17:04 12,1 C 11,1 C 7,8 C 94 % 1015,0 hPa 0,2 l/m 0 min 2 min 0 W/m 16,1 km/h (3 Bft) 95,74 %
04.01.2023 17:06 12,0 C 11,1 C 7,8 C 94 % 1014,9 hPa 0,0 l/m 0 min 2 min 0 W/m 22,5 km/h (4 Bft) 98,28 %
04.01.2023 17:08 11,9 C 11,1 C 7,8 C 95 % 1014,9 hPa 0,0 l/m 0 min 0 min 0 W/m 25,7 km/h (4 Bft) 94,44 %
04.01.2023 17:10 11,9 C 11,1 C 7,8 C 95 % 1015,0 hPa 0,0 l/m 0 min 0 min 0 W/m 22,5 km/h (4 Bft) 95,65 %
04.01.2023 17:12 11,9 C 11,1 C 7,8 C 95 % 1015,0 hPa 0,0 l/m 0 min 0 min 0 W/m 16,1 km/h (3 Bft) 93,62 %
04.01.2023 17:14 11,9 C 10,6 C 7,8 C 95 % 1015,0 hPa 0,0 l/m 0 min 2 min 0 W/m 12,9 km/h (3 Bft) 93,62 %
04.01.2023 17:16 11,9 C 10,6 C 7,8 C 95 % 1015,0 hPa 0,0 l/m 0 min 2 min 0 W/m 16,1 km/h (3 Bft) 91,49 %
04.01.2023 17:18 11,9 C 10,6 C 7,8 C 95 % 1015,0 hPa 0,0 l/m 0 min 0 min 0 W/m 19,3 km/h (3 Bft) 95,74 %
04.01.2023 17:20 11,9 C 10,6 C 7,8 C 95 % 1015,0 hPa 0,0 l/m 0 min 0 min 0 W/m 9,7 km/h (2 Bft) 91,49 %
04.01.2023 17:22 11,9 C 10,6 C 7,8 C 96 % 1015,1 hPa 0,2 l/m 0 min 2 min 0 W/m 12,9 km/h (3 Bft) 93,62 %
04.01.2023 17:24 11,9 C 10,6 C 7,8 C 96 % 1015,2 hPa 0,4 l/m 0 min 2 min 0 W/m 22,5 km/h (4 Bft) 95,65 %
04.01.2023 17:26 11,9 C 10,6 C 7,8 C 96 % 1015,1 hPa 0,4 l/m 0 min 2 min 0 W/m 9,7 km/h (2 Bft) 91,49 %
04.01.2023 17:28 11,9 C 10,6 C 7,8 C 96 % 1015,1 hPa 0,0 l/m 0 min 2 min 0 W/m 19,3 km/h (3 Bft) 93,62 %
04.01.2023 17:30 11,9 C 10,6 C 7,8 C 96 % 1015,1 hPa 0,0 l/m 0 min 0 min 0 W/m 9,7 km/h (2 Bft) 95,74 %
04.01.2023 17:32 11,9 C 10,6 C 7,8 C 96 % 1015,0 hPa 0,0 l/m 0 min 0 min 0 W/m 9,7 km/h (2 Bft) 91,49 %
04.01.2023 17:34 11,9 C 10,6 C 7,8 C 96 % 1014,9 hPa 0,0 l/m 0 min 0 min 0 W/m 16,1 km/h (3 Bft) 93,62 %
04.01.2023 17:36 11,9 C 10,6 C 7,8 C 96 % 1014,9 hPa 0,0 l/m 0 min 0 min 0 W/m 9,7 km/h (2 Bft) 93,48 %
04.01.2023 17:38 11,9 C 11,1 C 8,3 C 96 % 1014,9 hPa 0,0 l/m 0 min 0 min 0 W/m 32,2 km/h (5 Bft) 93,62 %
04.01.2023 17:40 11,9 C 11,1 C 8,3 C 97 % 1014,9 hPa 0,0 l/m 0 min 0 min 0 W/m 22,5 km/h (4 Bft) 95,74 %
04.01.2023 17:42 11,9 C 11,1 C 8,3 C 97 % 1014,8 hPa 0,0 l/m 0 min 0 min 0 W/m 16,1 km/h (3 Bft) 95,74 %
04.01.2023 17:44 11,9 C 11,1 C 8,3 C 97 % 1014,8 hPa 0,0 l/m 0 min 0 min 0 W/m 22,5 km/h (4 Bft) 93,62 %
04.01.2023 17:46 11,9 C 11,1 C 8,3 C 97 % 1014,8 hPa 0,0 l/m 0 min 0 min 0 W/m 16,1 km/h (3 Bft) 95,74 %
04.01.2023 17:48 11,9 C 11,1 C 8,3 C 97 % 1014,7 hPa 0,0 l/m 0 min 2 min 0 W/m 16,1 km/h (3 Bft) 95,74 %
04.01.2023 17:50 11,9 C 11,1 C 8,3 C 97 % 1014,8 hPa 0,0 l/m 0 min 2 min 0 W/m 19,3 km/h (3 Bft) 95,65 %
04.01.2023 17:52 12,0 C 11,1 C 8,3 C 97 % 1014,6 hPa 0,0 l/m 0 min 2 min 0 W/m 12,9 km/h (3 Bft) 97,87 %
04.01.2023 17:54 12,0 C 11,1 C 8,3 C 97 % 1014,5 hPa 0,0 l/m 0 min 2 min 0 W/m 25,7 km/h (4 Bft) 95,74 %
04.01.2023 17:56 12,1 C 11,1 C 8,3 C 97 % 1014,5 hPa 0,0 l/m 0 min 2 min 0 W/m 22,5 km/h (4 Bft) 93,62 %
04.01.2023 17:58 12,1 C 11,1 C 8,3 C 97 % 1014,6 hPa 0,0 l/m 0 min 2 min 0 W/m 19,3 km/h (3 Bft) 97,87 %
04.01.2023 18:00 12,1 C 11,1 C 8,3 C 97 % 1014,6 hPa 0,0 l/m 0 min 0 min 0 W/m 35,4 km/h (5 Bft) 95,74 %
04.01.2023 18:02 12,1 C 11,7 C 8,3 C 97 % 1014,6 hPa 0,0 l/m 0 min 0 min 0 W/m 25,7 km/h (4 Bft) 93,62 %
04.01.2023 18:04 12,1 C 11,7 C 8,3 C 96 % 1014,6 hPa 0,0 l/m 0 min 0 min 0 W/m 25,7 km/h (4 Bft) 97,83 %
04.01.2023 18:06 12,1 C 11,7 C 8,3 C 96 % 1014,6 hPa 0,0 l/m 0 min 0 min 0 W/m 22,5 km/h (4 Bft) 97,92 %
04.01.2023 18:08 12,1 C 11,7 C 7,8 C 96 % 1014,4 hPa 0,0 l/m 0 min 0 min 0 W/m 61,2 km/h (7 Bft) 91,49 %
04.01.2023 18:10 12,1 C 11,7 C 7,8 C 96 % 1014,6 hPa 0,0 l/m 0 min 0 min 0 W/m 25,7 km/h (4 Bft) 95,74 %
04.01.2023 18:12 12,1 C 11,7 C 7,8 C 96 % 1014,7 hPa 0,0 l/m 0 min 0 min 0 W/m 25,7 km/h (4 Bft) 97,87 %
04.01.2023 18:14 12,1 C 11,7 C 7,8 C 96 % 1014,5 hPa 0,0 l/m 0 min 0 min 0 W/m 32,2 km/h (5 Bft) 93,62 %
04.01.2023 18:16 12,1 C 11,7 C 7,8 C 95 % 1014,6 hPa 0,0 l/m 0 min 0 min 0 W/m 38,6 km/h (5 Bft) 97,83 %
04.01.2023 18:18 12,1 C 11,1 C 7,8 C 95 % 1014,6 hPa 0,0 l/m 0 min 0 min 0 W/m 32,2 km/h (5 Bft) 97,87 %
04.01.2023 18:20 12,1 C 11,1 C 7,8 C 95 % 1014,7 hPa 0,0 l/m 0 min 0 min 0 W/m 35,4 km/h (5 Bft) 95,74 %
04.01.2023 18:22 12,1 C 11,1 C 7,8 C 94 % 1014,7 hPa 0,0 l/m 0 min 0 min 0 W/m 19,3 km/h (3 Bft) 97,87 %
04.01.2023 18:24 12,1 C 11,1 C 7,8 C 94 % 1014,7 hPa 0,0 l/m 0 min 0 min 0 W/m 19,3 km/h (3 Bft) 97,87 %
04.01.2023 18:26 12,1 C 11,1 C 7,8 C 94 % 1014,7 hPa 0,0 l/m 0 min 0 min 0 W/m 35,4 km/h (5 Bft) 100,00 %
04.01.2023 18:28 12,0 C 11,1 C 7,8 C 94 % 1014,7 hPa 0,0 l/m 0 min 0 min 0 W/m 22,5 km/h (4 Bft) 100,00 %
04.01.2023 18:30 12,0 C 11,1 C 7,8 C 94 % 1014,8 hPa 0,0 l/m 0 min 0 min 0 W/m 19,3 km/h (3 Bft) 100,00 %
04.01.2023 18:32 12,0 C 11,1 C 7,8 C 93 % 1014,8 hPa 0,0 l/m 0 min 0 min 0 W/m 19,3 km/h (3 Bft) 97,87 %
04.01.2023 18:34 11,9 C 11,1 C 7,8 C 93 % 1014,9 hPa 0,0 l/m 0 min 0 min 0 W/m 22,5 km/h (4 Bft) 100,00 %
04.01.2023 18:36 11,9 C 11,1 C 7,8 C 93 % 1014,8 hPa 0,0 l/m 0 min 0 min 0 W/m 35,4 km/h (5 Bft) 100,00 %
04.01.2023 18:38 11,9 C 11,1 C 7,8 C 93 % 1014,8 hPa 0,0 l/m 0 min 0 min 0 W/m 19,3 km/h (3 Bft) 97,87 %
04.01.2023 18:40 11,9 C 11,1 C 7,8 C 93 % 1014,8 hPa 0,0 l/m 0 min 0 min 0 W/m 25,7 km/h (4 Bft) 100,00 %
04.01.2023 18:42 11,8 C 11,1 C 7,8 C 93 % 1014,7 hPa 0,0 l/m 0 min 0 min 0 W/m 25,7 km/h (4 Bft) 100,00 %
04.01.2023 18:44 11,8 C 11,1 C 7,8 C 93 % 1014,7 hPa 0,0 l/m 0 min 0 min 0 W/m 22,5 km/h (4 Bft) 100,00 %
04.01.2023 18:46 11,8 C 11,1 C 7,2 C 93 % 1014,7 hPa 0,0 l/m 0 min 0 min 0 W/m 22,5 km/h (4 Bft) 100,00 %
04.01.2023 18:48 11,8 C 11,1 C 7,2 C 93 % 1014,8 hPa 0,0 l/m 0 min 0 min 0 W/m 29,0 km/h (5 Bft) 95,74 %
04.01.2023 18:50 11,8 C 11,1 C 7,2 C 93 % 1015,0 hPa 0,0 l/m 0 min 0 min 0 W/m 19,3 km/h (3 Bft) 100,00 %
04.01.2023 18:52 11,8 C 11,1 C 7,2 C 93 % 1015,0 hPa 0,0 l/m 0 min 0 min 0 W/m 19,3 km/h (3 Bft) 100,00 %
04.01.2023 18:54 11,8 C 11,1 C 7,2 C 93 % 1015,2 hPa 0,0 l/m 0 min 0 min 0 W/m 19,3 km/h (3 Bft) 100,00 %
04.01.2023 18:56 11,8 C 11,1 C 7,2 C 93 % 1015,3 hPa 0,0 l/m 0 min 0 min 0 W/m 22,5 km/h (4 Bft) 100,00 %
04.01.2023 18:58 11,8 C 11,1 C 7,2 C 92 % 1015,5 hPa 0,0 l/m 0 min 0 min 0 W/m 22,5 km/h (4 Bft) 100,00 %
04.01.2023 19:00 11,9 C 11,7 C 7,8 C 92 % 1015,4 hPa 0,0 l/m 0 min 0 min 0 W/m 54,7 km/h (7 Bft) 97,87 %
04.01.2023 19:02 11,9 C 11,7 C 7,8 C 92 % 1015,3 hPa 0,0 l/m 0 min 0 min 0 W/m 25,7 km/h (4 Bft) 97,87 %
04.01.2023 19:04 12,0 C 11,7 C 7,8 C 92 % 1015,3 hPa 0,0 l/m 0 min 0 min 0 W/m 29,0 km/h (5 Bft) 97,87 %
04.01.2023 19:06 12,1 C 11,7 C 7,8 C 91 % 1015,2 hPa 0,0 l/m 0 min 0 min 0 W/m 25,7 km/h (4 Bft) 96,55 %
04.01.2023 19:08 12,1 C 11,7 C 7,8 C 91 % 1015,2 hPa 0,0 l/m 0 min 0 min 0 W/m 45,1 km/h (6 Bft) 100,00 %
04.01.2023 19:10 12,1 C 11,7 C 7,8 C 91 % 1015,3 hPa 0,0 l/m 0 min 0 min 0 W/m 29,0 km/h (5 Bft) 97,87 %
04.01.2023 19:12 12,1 C 11,7 C 7,8 C 91 % 1015,1 hPa 0,0 l/m 0 min 0 min 0 W/m 16,1 km/h (3 Bft) 97,87 %
04.01.2023 19:14 12,1 C 11,7 C 7,8 C 91 % 1015,2 hPa 0,0 l/m 0 min 0 min 0 W/m 19,3 km/h (3 Bft) 95,74 %
04.01.2023 19:16 12,1 C 11,7 C 7,8 C 91 % 1015,2 hPa 0,0 l/m 0 min 0 min 0 W/m 16,1 km/h (3 Bft) 97,87 %
04.01.2023 19:18 12,1 C 11,7 C 7,8 C 90 % 1015,3 hPa 0,0 l/m 0 min 0 min 0 W/m 29,0 km/h (5 Bft) 97,87 %
04.01.2023 19:20 12,1 C 11,7 C 7,2 C 90 % 1015,3 hPa 0,0 l/m 0 min 0 min 0 W/m 16,1 km/h (3 Bft) 93,48 %
04.01.2023 19:22 12,1 C 11,7 C 7,2 C 90 % 1015,3 hPa 0,0 l/m 0 min 0 min 0 W/m 38,6 km/h (5 Bft) 97,87 %
04.01.2023 19:24 12,2 C 11,7 C 7,2 C 90 % 1015,2 hPa 0,0 l/m 0 min 0 min 0 W/m 22,5 km/h (4 Bft) 97,87 %
04.01.2023 19:26 12,2 C 11,7 C 7,2 C 89 % 1015,1 hPa 0,0 l/m 0 min 0 min 0 W/m 22,5 km/h (4 Bft) 95,74 %
04.01.2023 19:28 12,2 C 11,7 C 7,2 C 89 % 1015,1 hPa 0,0 l/m 0 min 0 min 0 W/m 25,7 km/h (4 Bft) 97,87 %
04.01.2023 19:30 12,2 C 11,1 C 7,2 C 89 % 1015,2 hPa 0,0 l/m 0 min 0 min 0 W/m 22,5 km/h (4 Bft) 97,87 %
04.01.2023 19:32 12,1 C 11,1 C 7,2 C 89 % 1015,2 hPa 0,0 l/m 0 min 0 min 0 W/m 22,5 km/h (4 Bft) 97,87 %
04.01.2023 19:34 12,1 C 11,7 C 7,2 C 89 % 1015,2 hPa 0,0 l/m 0 min 0 min 0 W/m 25,7 km/h (4 Bft) 100,00 %
04.01.2023 19:36 12,2 C 11,7 C 7,2 C 89 % 1015,3 hPa 0,0 l/m 0 min 0 min 0 W/m 19,3 km/h (3 Bft) 100,00 %
04.01.2023 19:38 12,1 C 11,7 C 7,2 C 89 % 1015,2 hPa 0,0 l/m 0 min 0 min 0 W/m 22,5 km/h (4 Bft) 100,00 %
04.01.2023 19:40 12,1 C 11,1 C 7,2 C 89 % 1015,3 hPa 0,0 l/m 0 min 0 min 0 W/m 19,3 km/h (3 Bft) 97,87 %
04.01.2023 19:42 12,1 C 11,1 C 7,2 C 89 % 1015,4 hPa 0,0 l/m 0 min 0 min 0 W/m 19,3 km/h (3 Bft) 100,00 %
04.01.2023 19:44 12,1 C 11,7 C 7,2 C 89 % 1015,3 hPa 0,0 l/m 0 min 0 min 0 W/m 22,5 km/h (4 Bft) 100,00 %
04.01.2023 19:46 12,1 C 11,1 C 7,2 C 89 % 1015,3 hPa 0,0 l/m 0 min 0 min 0 W/m 16,1 km/h (3 Bft) 93,48 %
04.01.2023 19:48 12,1 C 11,7 C 7,2 C 89 % 1015,3 hPa 0,0 l/m 0 min 0 min 0 W/m 32,2 km/h (5 Bft) 100,00 %
04.01.2023 19:50 12,2 C 11,7 C 7,2 C 89 % 1015,4 hPa 0,0 l/m 0 min 0 min 0 W/m 22,5 km/h (4 Bft) 100,00 %
04.01.2023 19:52 12,2 C 11,7 C 7,2 C 89 % 1015,4 hPa 0,0 l/m 0 min 0 min 0 W/m 25,7 km/h (4 Bft) 95,92 %
04.01.2023 19:54 12,2 C 11,7 C 7,2 C 89 % 1015,3 hPa 0,0 l/m 0 min 0 min 0 W/m 22,5 km/h (4 Bft) 100,00 %
04.01.2023 19:56 12,2 C 11,1 C 7,2 C 89 % 1015,3 hPa 0,0 l/m 0 min 0 min 0 W/m 22,5 km/h (4 Bft) 97,87 %
04.01.2023 19:58 12,2 C 11,1 C 7,2 C 89 % 1015,3 hPa 0,0 l/m 0 min 0 min 0 W/m 22,5 km/h (4 Bft) 100,00 %
04.01.2023 20:00 12,1 C 11,1 C 7,2 C 89 % 1015,3 hPa 0,2 l/m 0 min 0 min 0 W/m 25,7 km/h (4 Bft) 97,87 %
04.01.2023 20:02 12,2 C 11,7 C 7,2 C 89 % 1015,3 hPa 0,0 l/m 0 min 0 min 0 W/m 29,0 km/h (5 Bft) 95,74 %
04.01.2023 20:04 12,2 C 11,7 C 7,2 C 89 % 1015,3 hPa 0,0 l/m 0 min 0 min 0 W/m 16,1 km/h (3 Bft) 97,87 %
04.01.2023 20:06 12,2 C 11,7 C 7,2 C 89 % 1015,3 hPa 0,0 l/m 0 min 0 min 0 W/m 22,5 km/h (4 Bft) 95,74 %
04.01.2023 20:08 12,2 C 11,7 C 7,2 C 89 % 1015,3 hPa 0,0 l/m 0 min 0 min 0 W/m 25,7 km/h (4 Bft) 95,74 %
04.01.2023 20:10 12,2 C 11,7 C 7,2 C 89 % 1015,3 hPa 0,0 l/m 0 min 0 min 0 W/m 35,4 km/h (5 Bft) 95,65 %
04.01.2023 20:12 12,2 C 11,7 C 7,2 C 89 % 1015,3 hPa 0,0 l/m 0 min 0 min 0 W/m 35,4 km/h (5 Bft) 91,49 %
04.01.2023 20:14 12,2 C 11,7 C 7,2 C 88 % 1015,4 hPa 0,0 l/m 0 min 0 min 0 W/m 38,6 km/h (5 Bft) 95,74 %
04.01.2023 20:16 12,2 C 11,7 C 7,2 C 88 % 1015,5 hPa 0,0 l/m 0 min 0 min 0 W/m 19,3 km/h (3 Bft) 93,62 %
04.01.2023 20:18 12,2 C 11,7 C 7,2 C 88 % 1015,4 hPa 0,0 l/m 0 min 0 min 0 W/m 29,0 km/h (5 Bft) 95,74 %
04.01.2023 20:20 12,2 C 11,7 C 7,2 C 88 % 1015,2 hPa 0,0 l/m 0 min 0 min 0 W/m 35,4 km/h (5 Bft) 95,74 %
04.01.2023 20:22 12,2 C 11,7 C 7,8 C 88 % 1015,0 hPa 0,0 l/m 0 min 0 min 0 W/m 25,7 km/h (4 Bft) 95,65 %
04.01.2023 20:24 12,2 C 11,7 C 7,8 C 88 % 1015,2 hPa 0,0 l/m 0 min 0 min 0 W/m 25,7 km/h (4 Bft) 97,87 %
04.01.2023 20:26 12,2 C 11,7 C 7,8 C 88 % 1015,3 hPa 0,0 l/m 0 min 0 min 0 W/m 25,7 km/h (4 Bft) 95,74 %
04.01.2023 20:28 12,2 C 11,7 C 7,8 C 88 % 1015,4 hPa 0,0 l/m 0 min 0 min 0 W/m 29,0 km/h (5 Bft) 93,62 %
04.01.2023 20:30 12,2 C 11,7 C 8,3 C 88 % 1015,5 hPa 0,0 l/m 0 min 0 min 0 W/m 35,4 km/h (5 Bft) 95,74 %
04.01.2023 20:32 12,2 C 11,7 C 8,3 C 88 % 1015,5 hPa 0,0 l/m 0 min 0 min 0 W/m 29,0 km/h (5 Bft) 93,62 %
04.01.2023 20:34 12,2 C 11,7 C 8,3 C 88 % 1015,4 hPa 0,0 l/m 0 min 0 min 0 W/m 22,5 km/h (4 Bft) 95,74 %
04.01.2023 20:36 12,2 C 11,7 C 8,3 C 88 % 1015,3 hPa 0,0 l/m 0 min 0 min 0 W/m 35,4 km/h (5 Bft) 95,65 %
04.01.2023 20:38 12,2 C 11,7 C 8,3 C 88 % 1015,3 hPa 0,0 l/m 0 min 0 min 0 W/m 32,2 km/h (5 Bft) 95,74 %
04.01.2023 20:40 12,2 C 11,7 C 7,8 C 88 % 1015,4 hPa 0,0 l/m 0 min 0 min 0 W/m 35,4 km/h (5 Bft) 95,74 %
04.01.2023 20:42 12,2 C 11,1 C 7,8 C 88 % 1015,3 hPa 0,0 l/m 0 min 0 min 0 W/m 22,5 km/h (4 Bft) 95,74 %
04.01.2023 20:44 12,2 C 11,1 C 8,3 C 89 % 1015,1 hPa 0,0 l/m 0 min 0 min 0 W/m 25,7 km/h (4 Bft) 95,74 %
04.01.2023 20:46 12,2 C 11,7 C 7,8 C 89 % 1015,2 hPa 0,0 l/m 0 min 0 min 0 W/m 29,0 km/h (5 Bft) 93,62 %
04.01.2023 20:48 12,1 C 11,1 C 7,8 C 89 % 1015,3 hPa 0,0 l/m 0 min 0 min 0 W/m 25,7 km/h (4 Bft) 97,87 %
04.01.2023 20:50 12,1 C 11,1 C 7,8 C 89 % 1015,4 hPa 0,0 l/m 0 min 0 min 0 W/m 29,0 km/h (5 Bft) 95,65 %
04.01.2023 20:52 12,1 C 11,1 C 7,8 C 89 % 1015,5 hPa 0,0 l/m 0 min 0 min 0 W/m 16,1 km/h (3 Bft) 97,83 %
04.01.2023 20:54 12,1 C 11,1 C 7,8 C 89 % 1015,6 hPa 0,0 l/m 0 min 0 min 0 W/m 32,2 km/h (5 Bft) 97,87 %
04.01.2023 20:56 12,1 C 11,1 C 7,8 C 89 % 1015,5 hPa 0,0 l/m 0 min 0 min 0 W/m 35,4 km/h (5 Bft) 97,87 %
04.01.2023 20:58 12,1 C 11,1 C 7,8 C 89 % 1015,4 hPa 0,0 l/m 0 min 0 min 0 W/m 29,0 km/h (5 Bft) 97,87 %
04.01.2023 21:00 12,1 C 11,1 C 7,8 C 89 % 1015,6 hPa 0,0 l/m 0 min 0 min 0 W/m 41,8 km/h (6 Bft) 95,74 %
04.01.2023 21:02 12,1 C 11,1 C 7,8 C 89 % 1015,5 hPa 0,0 l/m 0 min 0 min 0 W/m 22,5 km/h (4 Bft) 93,62 %
04.01.2023 21:04 12,1 C 11,1 C 7,8 C 89 % 1015,4 hPa 0,0 l/m 0 min 0 min 0 W/m 19,3 km/h (3 Bft) 97,83 %
04.01.2023 21:06 12,1 C 11,1 C 7,8 C 89 % 1015,4 hPa 0,0 l/m 0 min 0 min 0 W/m 22,5 km/h (4 Bft) 97,87 %
04.01.2023 21:08 12,1 C 11,1 C 7,8 C 88 % 1015,4 hPa 0,0 l/m 0 min 0 min 0 W/m 25,7 km/h (4 Bft) 97,87 %
04.01.2023 21:10 12,1 C 11,1 C 7,8 C 89 % 1015,5 hPa 0,0 l/m 0 min 0 min 0 W/m 22,5 km/h (4 Bft) 97,87 %
04.01.2023 21:12 12,1 C 11,1 C 7,8 C 88 % 1015,6 hPa 0,0 l/m 0 min 0 min 0 W/m 35,4 km/h (5 Bft) 97,87 %
04.01.2023 21:14 12,1 C 11,1 C 7,8 C 88 % 1015,5 hPa 0,0 l/m 0 min 0 min 0 W/m 22,5 km/h (4 Bft) 97,87 %
04.01.2023 21:16 12,1 C 11,1 C 7,8 C 88 % 1015,6 hPa 0,0 l/m 0 min 0 min 0 W/m 19,3 km/h (3 Bft) 97,87 %
04.01.2023 21:18 12,1 C 11,1 C 7,8 C 88 % 1015,6 hPa 0,0 l/m 0 min 0 min 0 W/m 25,7 km/h (4 Bft) 97,83 %
04.01.2023 21:20 12,1 C 11,1 C 7,8 C 88 % 1015,6 hPa 0,0 l/m 0 min 0 min 0 W/m 29,0 km/h (5 Bft) 97,87 %
04.01.2023 21:22 12,1 C 11,1 C 7,8 C 88 % 1015,6 hPa 0,0 l/m 0 min 0 min 0 W/m 25,7 km/h (4 Bft) 97,87 %
04.01.2023 21:24 12,1 C 11,1 C 7,8 C 88 % 1015,7 hPa 0,0 l/m 0 min 0 min 0 W/m 19,3 km/h (3 Bft) 97,87 %
04.01.2023 21:26 12,1 C 11,1 C 7,8 C 88 % 1015,6 hPa 0,0 l/m 0 min 0 min 0 W/m 25,7 km/h (4 Bft) 97,87 %
04.01.2023 21:28 12,1 C 11,1 C 7,8 C 88 % 1015,6 hPa 0,0 l/m 0 min 0 min 0 W/m 25,7 km/h (4 Bft) 100,00 %
04.01.2023 21:30 12,1 C 11,1 C 7,8 C 88 % 1015,6 hPa 0,0 l/m 0 min 0 min 0 W/m 29,0 km/h (5 Bft) 100,00 %
04.01.2023 21:32 12,1 C 11,1 C 7,8 C 87 % 1015,7 hPa 0,0 l/m 0 min 0 min 0 W/m 32,2 km/h (5 Bft) 100,00 %
04.01.2023 21:34 12,1 C 11,1 C 7,8 C 87 % 1015,7 hPa 0,0 l/m 0 min 0 min 0 W/m 12,9 km/h (3 Bft) 100,00 %
04.01.2023 21:36 12,1 C 11,1 C 7,8 C 87 % 1015,7 hPa 0,0 l/m 0 min 0 min 0 W/m 25,7 km/h (4 Bft) 100,00 %
04.01.2023 21:38 12,1 C 11,1 C 7,8 C 87 % 1015,7 hPa 0,0 l/m 0 min 0 min 0 W/m 25,7 km/h (4 Bft) 100,00 %
04.01.2023 21:40 12,1 C 11,1 C 7,8 C 87 % 1015,8 hPa 0,0 l/m 0 min 0 min 0 W/m 32,2 km/h (5 Bft) 100,00 %
04.01.2023 21:42 12,1 C 11,1 C 7,8 C 87 % 1015,8 hPa 0,0 l/m 0 min 0 min 0 W/m 19,3 km/h (3 Bft) 97,87 %
04.01.2023 21:44 12,1 C 11,1 C 7,8 C 87 % 1015,8 hPa 0,0 l/m 0 min 0 min 0 W/m 22,5 km/h (4 Bft) 100,00 %
04.01.2023 21:46 12,1 C 11,1 C 7,8 C 87 % 1015,8 hPa 0,0 l/m 0 min 0 min 0 W/m 29,0 km/h (5 Bft) 100,00 %
04.01.2023 21:48 12,1 C 11,1 C 7,8 C 87 % 1015,8 hPa 0,0 l/m 0 min 0 min 0 W/m 29,0 km/h (5 Bft) 100,00 %
04.01.2023 21:50 12,0 C 11,1 C 7,8 C 87 % 1015,8 hPa 0,0 l/m 0 min 0 min 0 W/m 12,9 km/h (3 Bft) 100,00 %
04.01.2023 21:52 12,0 C 11,1 C 7,8 C 87 % 1015,9 hPa 0,0 l/m 0 min 0 min 0 W/m 22,5 km/h (4 Bft) 97,87 %
04.01.2023 21:54 12,0 C 11,1 C 7,8 C 87 % 1016,0 hPa 0,0 l/m 0 min 0 min 0 W/m 12,9 km/h (3 Bft) 100,00 %
04.01.2023 21:56 12,0 C 11,1 C 7,8 C 87 % 1015,9 hPa 0,0 l/m 0 min 0 min 0 W/m 19,3 km/h (3 Bft) 97,87 %
04.01.2023 21:58 12,0 C 11,1 C 7,8 C 87 % 1015,9 hPa 0,0 l/m 0 min 0 min 0 W/m 22,5 km/h (4 Bft) 100,00 %
04.01.2023 22:00 11,9 C 11,1 C 7,8 C 87 % 1015,9 hPa 0,0 l/m 0 min 0 min 0 W/m 29,0 km/h (5 Bft) 97,87 %
04.01.2023 22:02 11,9 C 11,1 C 7,8 C 87 % 1015,9 hPa 0,0 l/m 0 min 0 min 0 W/m 25,7 km/h (4 Bft) 97,87 %
04.01.2023 22:04 12,0 C 11,1 C 7,8 C 87 % 1015,9 hPa 0,0 l/m 0 min 0 min 0 W/m 32,2 km/h (5 Bft) 100,00 %
04.01.2023 22:06 12,0 C 11,1 C 7,8 C 86 % 1016,0 hPa 0,0 l/m 0 min 0 min 0 W/m 22,5 km/h (4 Bft) 100,00 %
04.01.2023 22:08 12,0 C 11,1 C 8,3 C 86 % 1015,9 hPa 0,0 l/m 0 min 0 min 0 W/m 38,6 km/h (5 Bft) 97,14 %
04.01.2023 22:10 12,0 C 11,1 C 8,3 C 86 % 1015,9 hPa 0,0 l/m 0 min 0 min 0 W/m 19,3 km/h (3 Bft) 100,00 %
04.01.2023 22:12 12,0 C 11,1 C 8,3 C 86 % 1015,9 hPa 0,0 l/m 0 min 0 min 0 W/m 22,5 km/h (4 Bft) 97,83 %
04.01.2023 22:14 12,0 C 11,1 C 8,3 C 86 % 1015,9 hPa 0,0 l/m 0 min 0 min 0 W/m 25,7 km/h (4 Bft) 97,87 %
04.01.2023 22:16 12,0 C 11,1 C 7,8 C 86 % 1016,1 hPa 0,0 l/m 0 min 0 min 0 W/m 29,0 km/h (5 Bft) 100,00 %
04.01.2023 22:18 11,9 C 11,1 C 7,8 C 86 % 1016,0 hPa 0,0 l/m 0 min 0 min 0 W/m 19,3 km/h (3 Bft) 100,00 %
04.01.2023 22:20 11,9 C 11,1 C 7,8 C 86 % 1015,9 hPa 0,0 l/m 0 min 0 min 0 W/m 25,7 km/h (4 Bft) 95,74 %
04.01.2023 22:22 11,9 C 11,1 C 7,8 C 86 % 1015,9 hPa 0,0 l/m 0 min 0 min 0 W/m 19,3 km/h (3 Bft) 97,87 %
04.01.2023 22:24 11,9 C 11,1 C 7,8 C 86 % 1016,0 hPa 0,0 l/m 0 min 0 min 0 W/m 25,7 km/h (4 Bft) 97,83 %
04.01.2023 22:26 11,9 C 11,1 C 7,8 C 86 % 1016,1 hPa 0,0 l/m 0 min 0 min 0 W/m 19,3 km/h (3 Bft) 100,00 %
04.01.2023 22:28 11,9 C 11,1 C 7,8 C 86 % 1016,1 hPa 0,0 l/m 0 min 0 min 0 W/m 19,3 km/h (3 Bft) 97,87 %
04.01.2023 22:30 11,9 C 11,1 C 7,8 C 86 % 1016,1 hPa 0,0 l/m 0 min 0 min 0 W/m 19,3 km/h (3 Bft) 100,00 %
04.01.2023 22:32 11,9 C 11,1 C 7,8 C 86 % 1016,0 hPa 0,0 l/m 0 min 0 min 0 W/m 22,5 km/h (4 Bft) 100,00 %
04.01.2023 22:34 11,9 C 11,1 C 7,8 C 86 % 1016,1 hPa 0,0 l/m 0 min 0 min 0 W/m 16,1 km/h (3 Bft) 100,00 %
04.01.2023 22:36 11,9 C 11,1 C 7,8 C 86 % 1016,1 hPa 0,0 l/m 0 min 0 min 0 W/m 19,3 km/h (3 Bft) 100,00 %
04.01.2023 22:38 11,8 C 11,1 C 7,8 C 87 % 1016,2 hPa 0,0 l/m 0 min 0 min 0 W/m 16,1 km/h (3 Bft) 97,83 %
04.01.2023 22:40 11,8 C 11,1 C 7,8 C 87 % 1016,3 hPa 0,0 l/m 0 min 0 min 0 W/m 19,3 km/h (3 Bft) 97,87 %
04.01.2023 22:42 11,8 C 11,1 C 7,8 C 87 % 1016,2 hPa 0,0 l/m 0 min 0 min 0 W/m 12,9 km/h (3 Bft) 95,74 %
04.01.2023 22:44 11,8 C 11,1 C 7,8 C 87 % 1016,2 hPa 0,0 l/m 0 min 0 min 0 W/m 19,3 km/h (3 Bft) 95,74 %
04.01.2023 22:46 11,8 C 11,1 C 7,8 C 87 % 1016,2 hPa 0,0 l/m 0 min 0 min 0 W/m 38,6 km/h (5 Bft) 97,87 %
04.01.2023 22:48 11,8 C 11,1 C 7,8 C 87 % 1016,1 hPa 0,0 l/m 0 min 0 min 0 W/m 22,5 km/h (4 Bft) 43,59 %
04.01.2023 22:50 11,8 C 11,1 C 7,8 C 87 % 1016,1 hPa 0,0 l/m 0 min 0 min 0 W/m 16,1 km/h (3 Bft) 97,87 %
04.01.2023 22:52 11,8 C 11,1 C 7,8 C 87 % 1016,2 hPa 0,0 l/m 0 min 0 min 0 W/m 22,5 km/h (4 Bft) 97,83 %
04.01.2023 22:54 11,8 C 11,1 C 7,8 C 87 % 1016,2 hPa 0,0 l/m 0 min 0 min 0 W/m 19,3 km/h (3 Bft) 95,74 %
04.01.2023 22:56 11,8 C 11,1 C 7,8 C 87 % 1016,2 hPa 0,0 l/m 0 min 0 min 0 W/m 16,1 km/h (3 Bft) 89,36 %
04.01.2023 22:58 11,8 C 11,1 C 7,8 C 87 % 1016,2 hPa 0,0 l/m 0 min 0 min 0 W/m 25,7 km/h (4 Bft) 93,62 %
04.01.2023 23:00 11,8 C 11,1 C 7,8 C 87 % 1016,2 hPa 0,0 l/m 0 min 0 min 0 W/m 22,5 km/h (4 Bft) 93,62 %
04.01.2023 23:02 11,8 C 11,1 C 7,8 C 87 % 1016,1 hPa 0,0 l/m 0 min 0 min 0 W/m 19,3 km/h (3 Bft) 93,62 %
04.01.2023 23:04 11,8 C 11,1 C 7,8 C 87 % 1016,1 hPa 0,0 l/m 0 min 0 min 0 W/m 29,0 km/h (5 Bft) 93,62 %
04.01.2023 23:06 11,8 C 11,1 C 7,8 C 87 % 1016,1 hPa 0,0 l/m 0 min 0 min 0 W/m 29,0 km/h (5 Bft) 93,10 %
04.01.2023 23:08 11,8 C 11,1 C 7,8 C 87 % 1016,1 hPa 0,0 l/m 0 min 0 min 0 W/m 19,3 km/h (3 Bft) 91,43 %
04.01.2023 23:10 11,8 C 11,1 C 7,8 C 87 % 1016,1 hPa 0,0 l/m 0 min 0 min 0 W/m 16,1 km/h (3 Bft) 95,74 %
04.01.2023 23:12 11,8 C 11,1 C 7,8 C 87 % 1016,1 hPa 0,0 l/m 0 min 0 min 0 W/m 16,1 km/h (3 Bft) 93,62 %
04.01.2023 23:14 11,8 C 11,1 C 7,8 C 87 % 1016,0 hPa 0,0 l/m 0 min 0 min 0 W/m 22,5 km/h (4 Bft) 93,62 %
04.01.2023 23:16 11,8 C 11,1 C 7,8 C 87 % 1016,2 hPa 0,0 l/m 0 min 0 min 0 W/m 19,3 km/h (3 Bft) 93,62 %
04.01.2023 23:18 11,8 C 11,1 C 7,8 C 87 % 1016,3 hPa 0,0 l/m 0 min 0 min 0 W/m 45,1 km/h (6 Bft) 91,30 %
04.01.2023 23:20 11,8 C 11,1 C 7,8 C 87 % 1016,1 hPa 0,0 l/m 0 min 0 min 0 W/m 25,7 km/h (4 Bft) 93,62 %
04.01.2023 23:22 11,8 C 11,1 C 7,8 C 87 % 1016,2 hPa 0,0 l/m 0 min 0 min 0 W/m 19,3 km/h (3 Bft) 93,62 %
04.01.2023 23:24 11,8 C 11,1 C 7,8 C 87 % 1016,2 hPa 0,0 l/m 0 min 0 min 0 W/m 25,7 km/h (4 Bft) 95,74 %
04.01.2023 23:26 11,8 C 11,1 C 7,8 C 86 % 1016,2 hPa 0,0 l/m 0 min 0 min 0 W/m 19,3 km/h (3 Bft) 97,87 %
04.01.2023 23:28 11,8 C 11,1 C 7,8 C 86 % 1016,2 hPa 0,0 l/m 0 min 0 min 0 W/m 16,1 km/h (3 Bft) 97,87 %
04.01.2023 23:30 11,8 C 11,1 C 7,8 C 86 % 1016,2 hPa 0,0 l/m 0 min 0 min 0 W/m 29,0 km/h (5 Bft) 97,87 %
04.01.2023 23:32 11,8 C 11,1 C 7,8 C 86 % 1016,2 hPa 0,0 l/m 0 min 0 min 0 W/m 25,7 km/h (4 Bft) 95,65 %
04.01.2023 23:34 11,8 C 11,1 C 7,8 C 86 % 1016,2 hPa 0,0 l/m 0 min 0 min 0 W/m 25,7 km/h (4 Bft) 97,87 %
04.01.2023 23:36 11,8 C 11,1 C 7,8 C 86 % 1016,3 hPa 0,0 l/m 0 min 0 min 0 W/m 32,2 km/h (5 Bft) 97,87 %
04.01.2023 23:38 11,8 C 11,1 C 7,8 C 86 % 1016,3 hPa 0,0 l/m 0 min 0 min 0 W/m 19,3 km/h (3 Bft) 97,87 %
04.01.2023 23:40 11,8 C 11,1 C 7,8 C 86 % 1016,3 hPa 0,0 l/m 0 min 0 min 0 W/m 12,9 km/h (3 Bft) 97,87 %
04.01.2023 23:42 11,8 C 11,1 C 7,8 C 86 % 1016,3 hPa 0,0 l/m 0 min 0 min 0 W/m 32,2 km/h (5 Bft) 97,87 %
04.01.2023 23:44 11,8 C 11,1 C 7,8 C 86 % 1016,5 hPa 0,0 l/m 0 min 0 min 0 W/m 25,7 km/h (4 Bft) 100,00 %
04.01.2023 23:46 11,8 C 11,1 C 7,8 C 86 % 1016,3 hPa 0,0 l/m 0 min 0 min 0 W/m 25,7 km/h (4 Bft) 100,00 %
04.01.2023 23:48 11,9 C 11,1 C 7,8 C 86 % 1016,5 hPa 0,0 l/m 0 min 0 min 0 W/m 19,3 km/h (3 Bft) 100,00 %
04.01.2023 23:50 11,9 C 11,1 C 7,8 C 86 % 1016,4 hPa 0,0 l/m 0 min 0 min 0 W/m 25,7 km/h (4 Bft) 100,00 %
04.01.2023 23:52 11,9 C 11,1 C 7,8 C 86 % 1016,5 hPa 0,0 l/m 0 min 0 min 0 W/m 16,1 km/h (3 Bft) 97,87 %
04.01.2023 23:54 11,9 C 11,1 C 7,8 C 86 % 1016,5 hPa 0,0 l/m 0 min 0 min 0 W/m 16,1 km/h (3 Bft) 100,00 %
04.01.2023 23:56 11,9 C 11,1 C 7,8 C 86 % 1016,6 hPa 0,0 l/m 0 min 0 min 0 W/m 16,1 km/h (3 Bft) 100,00 %
04.01.2023 23:58 11,8 C 11,1 C 7,8 C 86 % 1016,6 hPa 0,0 l/m 0 min 0 min 0 W/m 19,3 km/h (3 Bft) 100,00 %
_ Min-Zeit 00:00 00:00 00:00 01:14 18:08 - - - - 17:20 11:10
Minimum _ 6,8 C 6,7 C 3,3 C 85 % 1014,4 hPa - - - - 9,7 km/h (2 Bft) 40,43 %
_ Max-Zeit 16:32 14:46 16:32 17:40 00:00 17:02 00:00 01:20 11:58 12:58 00:12
Maximum _ 12,4 C 11,7 C 8,9 C 97 % 1023,6 hPa 0,4 l/m 0 min 2 min 80 W/m 77,2 km/h
O-SO (9 Bft)
100,00 %
Durchschnitt _ 10,9 C 10,2 C 6,7 C 91 % 1017,3 hPa #4,2 l/m #0 min. #6:42 h 30 W/m 29,8 km/h (5 Bft) 96,53 %
© 2023 W. Hausmann